Wetterdaten: Dienstag, 17.08.2021
Datum Zeit Temp. Aussen Temp. o. S. Temp +5cm Feuchte Auss Luftdruck Regen Sonnenschein Regendauer Solar Windben Empfang
17.08.2021 00:00 12,5 C 12,2 C 11,1 C 85 % 1017,9 hPa 0,0 l/m 0 min 0 min 0 W/m 6,4 km/h (2 Bft) 100,00 %
17.08.2021 00:02 12,5 C 12,2 C 11,1 C 85 % 1018,0 hPa 0,0 l/m 0 min 0 min 0 W/m 12,9 km/h (3 Bft) 100,00 %
17.08.2021 00:04 12,6 C 12,2 C 11,1 C 85 % 1017,9 hPa 0,0 l/m 0 min 0 min 0 W/m 9,7 km/h (2 Bft) 100,00 %
17.08.2021 00:08 12,6 C 12,2 C 11,1 C 85 % 1017,9 hPa 0,0 l/m 0 min 0 min 0 W/m 12,9 km/h (3 Bft) 100,00 %
17.08.2021 00:10 12,6 C 12,2 C 11,1 C 85 % 1017,9 hPa 0,0 l/m 0 min 0 min 0 W/m 12,9 km/h (3 Bft) 100,00 %
17.08.2021 00:12 12,6 C 12,2 C 11,1 C 85 % 1017,8 hPa 0,0 l/m 0 min 0 min 0 W/m 16,1 km/h (3 Bft) 97,87 %
17.08.2021 00:14 12,6 C 12,2 C 11,1 C 85 % 1017,9 hPa 0,0 l/m 0 min 0 min 0 W/m 16,1 km/h (3 Bft) 100,00 %
17.08.2021 00:16 12,6 C 12,2 C 11,1 C 85 % 1017,9 hPa 0,0 l/m 0 min 0 min 0 W/m 9,7 km/h (2 Bft) 100,00 %
17.08.2021 00:18 12,7 C 12,2 C 11,1 C 85 % 1017,9 hPa 0,0 l/m 0 min 0 min 0 W/m 12,9 km/h (3 Bft) 100,00 %
17.08.2021 00:20 12,7 C 12,2 C 11,1 C 85 % 1018,0 hPa 0,0 l/m 0 min 0 min 0 W/m 16,1 km/h (3 Bft) 100,00 %
17.08.2021 00:22 12,7 C 12,2 C 11,1 C 85 % 1018,0 hPa 0,0 l/m 0 min 0 min 0 W/m 12,9 km/h (3 Bft) 97,87 %
17.08.2021 00:24 12,8 C 12,2 C 11,1 C 85 % 1018,1 hPa 0,0 l/m 0 min 0 min 0 W/m 12,9 km/h (3 Bft) 100,00 %
17.08.2021 00:26 12,8 C 12,2 C 11,1 C 86 % 1018,2 hPa 0,0 l/m 0 min 0 min 0 W/m 12,9 km/h (3 Bft) 97,87 %
17.08.2021 00:28 12,8 C 12,2 C 11,1 C 85 % 1018,1 hPa 0,0 l/m 0 min 0 min 0 W/m 16,1 km/h (3 Bft) 97,87 %
17.08.2021 00:30 12,8 C 12,2 C 11,1 C 85 % 1018,1 hPa 0,0 l/m 0 min 0 min 0 W/m 16,1 km/h (3 Bft) 97,83 %
17.08.2021 00:32 12,9 C 12,2 C 11,1 C 85 % 1018,1 hPa 0,0 l/m 0 min 0 min 0 W/m 12,9 km/h (3 Bft) 97,87 %
17.08.2021 00:34 12,9 C 12,2 C 11,1 C 85 % 1018,2 hPa 0,0 l/m 0 min 0 min 0 W/m 16,1 km/h (3 Bft) 95,74 %
17.08.2021 00:36 12,9 C 12,2 C 11,1 C 85 % 1018,2 hPa 0,0 l/m 0 min 0 min 0 W/m 12,9 km/h (3 Bft) 97,87 %
17.08.2021 00:38 12,9 C 12,2 C 11,1 C 85 % 1018,1 hPa 0,0 l/m 0 min 0 min 0 W/m 12,9 km/h (3 Bft) 95,83 %
17.08.2021 00:40 12,8 C 12,2 C 11,1 C 85 % 1018,2 hPa 0,0 l/m 0 min 0 min 0 W/m 16,1 km/h (3 Bft) 97,87 %
17.08.2021 00:42 12,8 C 12,2 C 11,1 C 85 % 1018,2 hPa 0,0 l/m 0 min 0 min 0 W/m 9,7 km/h (2 Bft) 97,87 %
17.08.2021 00:44 12,8 C 12,2 C 11,1 C 86 % 1018,2 hPa 0,0 l/m 0 min 0 min 0 W/m 12,9 km/h (3 Bft) 97,87 %
17.08.2021 00:46 12,8 C 12,2 C 11,1 C 86 % 1018,2 hPa 0,0 l/m 0 min 0 min 0 W/m 12,9 km/h (3 Bft) 97,83 %
17.08.2021 00:48 12,8 C 11,7 C 11,1 C 86 % 1018,2 hPa 0,0 l/m 0 min 0 min 0 W/m 9,7 km/h (2 Bft) 97,87 %
17.08.2021 00:50 12,7 C 11,7 C 11,1 C 86 % 1018,2 hPa 0,0 l/m 0 min 0 min 0 W/m 6,4 km/h (2 Bft) 97,87 %
17.08.2021 00:52 12,7 C 11,7 C 11,1 C 86 % 1018,2 hPa 0,0 l/m 0 min 0 min 0 W/m 9,7 km/h (2 Bft) 97,87 %
17.08.2021 00:54 12,6 C 11,7 C 11,1 C 86 % 1018,2 hPa 0,0 l/m 0 min 0 min 0 W/m 6,4 km/h (2 Bft) 97,87 %
17.08.2021 00:56 12,6 C 11,7 C 11,1 C 86 % 1018,2 hPa 0,0 l/m 0 min 0 min 0 W/m 9,7 km/h (2 Bft) 97,83 %
17.08.2021 00:58 12,6 C 11,7 C 11,1 C 87 % 1018,2 hPa 0,0 l/m 0 min 0 min 0 W/m 12,9 km/h (3 Bft) 97,87 %
17.08.2021 01:00 12,5 C 11,7 C 11,1 C 87 % 1018,2 hPa 0,0 l/m 0 min 0 min 0 W/m 12,9 km/h (3 Bft) 97,87 %
17.08.2021 01:02 12,5 C 11,7 C 10,6 C 87 % 1018,1 hPa 0,0 l/m 0 min 0 min 0 W/m 16,1 km/h (3 Bft) 95,74 %
17.08.2021 01:04 12,5 C 11,7 C 10,6 C 87 % 1018,2 hPa 0,0 l/m 0 min 0 min 0 W/m 6,4 km/h (2 Bft) 97,87 %
17.08.2021 01:06 12,4 C 11,7 C 10,6 C 87 % 1018,2 hPa 0,0 l/m 0 min 0 min 0 W/m 12,9 km/h (3 Bft) 97,87 %
17.08.2021 01:08 12,4 C 11,7 C 10,6 C 87 % 1018,2 hPa 0,0 l/m 0 min 0 min 0 W/m 6,4 km/h (2 Bft) 97,83 %
17.08.2021 01:10 12,4 C 11,7 C 10,6 C 88 % 1018,2 hPa 0,0 l/m 0 min 0 min 0 W/m 9,7 km/h (2 Bft) 95,74 %
17.08.2021 01:12 12,3 C 11,7 C 10,6 C 88 % 1018,1 hPa 0,0 l/m 0 min 0 min 0 W/m 6,4 km/h (2 Bft) 100,00 %
17.08.2021 01:14 12,3 C 11,7 C 10,6 C 88 % 1018,1 hPa 0,0 l/m 0 min 0 min 0 W/m 6,4 km/h (2 Bft) 97,87 %
17.08.2021 01:16 12,3 C 11,7 C 10,6 C 88 % 1018,2 hPa 0,0 l/m 0 min 0 min 0 W/m 6,4 km/h (2 Bft) 97,87 %
17.08.2021 01:18 12,3 C 11,1 C 10,6 C 88 % 1018,1 hPa 0,0 l/m 0 min 0 min 0 W/m 6,4 km/h (2 Bft) 97,87 %
17.08.2021 01:20 12,2 C 11,1 C 10,6 C 88 % 1018,2 hPa 0,0 l/m 0 min 0 min 0 W/m 6,4 km/h (2 Bft) 97,83 %
17.08.2021 01:22 12,1 C 11,1 C 10,6 C 89 % 1018,2 hPa 0,0 l/m 0 min 0 min 0 W/m 16,1 km/h (3 Bft) 97,87 %
17.08.2021 01:24 12,1 C 11,1 C 10,6 C 88 % 1018,2 hPa 0,0 l/m 0 min 0 min 0 W/m 12,9 km/h (3 Bft) 100,00 %
17.08.2021 01:26 12,1 C 11,1 C 10,6 C 89 % 1018,2 hPa 0,0 l/m 0 min 0 min 0 W/m 6,4 km/h (2 Bft) 97,87 %
17.08.2021 01:28 12,1 C 11,1 C 10,6 C 89 % 1018,2 hPa 0,0 l/m 0 min 0 min 0 W/m 12,9 km/h (3 Bft) 97,87 %
17.08.2021 01:30 12,1 C 11,1 C 10,6 C 89 % 1018,2 hPa 0,0 l/m 0 min 0 min 0 W/m 6,4 km/h (2 Bft) 97,87 %
17.08.2021 01:32 12,1 C 11,1 C 10,6 C 89 % 1018,2 hPa 0,0 l/m 0 min 0 min 0 W/m 6,4 km/h (2 Bft) 95,65 %
17.08.2021 01:34 12,0 C 11,1 C 10,6 C 89 % 1018,2 hPa 0,0 l/m 0 min 0 min 0 W/m 6,4 km/h (2 Bft) 95,74 %
17.08.2021 01:36 12,0 C 11,1 C 10,6 C 89 % 1018,3 hPa 0,0 l/m 0 min 0 min 0 W/m 6,4 km/h (2 Bft) 95,74 %
17.08.2021 01:38 12,0 C 11,1 C 10,6 C 89 % 1018,2 hPa 0,0 l/m 0 min 0 min 0 W/m 12,9 km/h (3 Bft) 97,87 %
17.08.2021 01:40 12,0 C 11,1 C 10,6 C 90 % 1018,3 hPa 0,0 l/m 0 min 0 min 0 W/m 6,4 km/h (2 Bft) 95,74 %
17.08.2021 01:42 12,0 C 11,1 C 10,6 C 90 % 1018,3 hPa 0,0 l/m 0 min 0 min 0 W/m 9,7 km/h (2 Bft) 93,62 %
17.08.2021 01:44 12,0 C 11,1 C 10,6 C 90 % 1018,3 hPa 0,0 l/m 0 min 0 min 0 W/m 3,2 km/h (1 Bft) 95,65 %
17.08.2021 01:46 11,9 C 11,1 C 10,6 C 90 % 1018,3 hPa 0,0 l/m 0 min 0 min 0 W/m 12,9 km/h (3 Bft) 97,87 %
17.08.2021 01:48 11,9 C 11,1 C 10,6 C 90 % 1018,2 hPa 0,0 l/m 0 min 0 min 0 W/m 9,7 km/h (2 Bft) 95,74 %
17.08.2021 01:50 11,9 C 11,1 C 10,6 C 90 % 1018,2 hPa 0,0 l/m 0 min 0 min 0 W/m 9,7 km/h (2 Bft) 100,00 %
17.08.2021 01:52 11,9 C 11,1 C 10,6 C 90 % 1018,2 hPa 0,0 l/m 0 min 0 min 0 W/m 6,4 km/h (2 Bft) 97,87 %
17.08.2021 01:54 11,9 C 11,1 C 10,6 C 90 % 1018,1 hPa 0,0 l/m 0 min 0 min 0 W/m 12,9 km/h (3 Bft) 97,83 %
17.08.2021 01:56 11,9 C 11,1 C 10,6 C 90 % 1018,1 hPa 0,0 l/m 0 min 0 min 0 W/m 12,9 km/h (3 Bft) 97,87 %
17.08.2021 01:58 11,9 C 11,1 C 10,6 C 91 % 1018,0 hPa 0,0 l/m 0 min 0 min 0 W/m 12,9 km/h (3 Bft) 97,87 %
17.08.2021 02:00 11,9 C 11,1 C 10,6 C 91 % 1018,0 hPa 0,0 l/m 0 min 0 min 0 W/m 6,4 km/h (2 Bft) 97,87 %
17.08.2021 02:02 11,9 C 11,1 C 10,6 C 91 % 1018,0 hPa 0,0 l/m 0 min 0 min 0 W/m 6,4 km/h (2 Bft) 97,87 %
17.08.2021 02:04 11,9 C 11,1 C 10,6 C 91 % 1018,0 hPa 0,0 l/m 0 min 0 min 0 W/m 6,4 km/h (2 Bft) 95,74 %
17.08.2021 02:06 11,8 C 11,1 C 10,6 C 91 % 1018,0 hPa 0,0 l/m 0 min 0 min 0 W/m 6,4 km/h (2 Bft) 97,83 %
17.08.2021 02:08 11,9 C 11,1 C 10,6 C 91 % 1018,0 hPa 0,0 l/m 0 min 0 min 0 W/m 19,3 km/h (3 Bft) 97,87 %
17.08.2021 02:10 11,9 C 11,1 C 10,6 C 91 % 1018,1 hPa 0,0 l/m 0 min 0 min 0 W/m 9,7 km/h (2 Bft) 95,74 %
17.08.2021 02:12 11,8 C 11,1 C 10,6 C 91 % 1018,1 hPa 0,0 l/m 0 min 0 min 0 W/m 6,4 km/h (2 Bft) 97,87 %
17.08.2021 02:14 11,9 C 11,1 C 10,6 C 92 % 1018,1 hPa 0,0 l/m 0 min 0 min 0 W/m 6,4 km/h (2 Bft) 97,87 %
17.08.2021 02:16 11,9 C 11,1 C 10,6 C 92 % 1018,1 hPa 0,0 l/m 0 min 0 min 0 W/m 12,9 km/h (3 Bft) 97,87 %
17.08.2021 02:18 11,8 C 11,1 C 10,6 C 92 % 1018,1 hPa 0,0 l/m 0 min 0 min 0 W/m 12,9 km/h (3 Bft) 97,83 %
17.08.2021 02:20 11,8 C 11,1 C 10,6 C 92 % 1018,1 hPa 0,0 l/m 0 min 0 min 0 W/m 6,4 km/h (2 Bft) 95,74 %
17.08.2021 02:22 11,8 C 11,1 C 10,6 C 92 % 1018,1 hPa 0,0 l/m 0 min 0 min 0 W/m 6,4 km/h (2 Bft) 95,74 %
17.08.2021 02:24 11,8 C 11,1 C 10,6 C 92 % 1018,1 hPa 0,0 l/m 0 min 0 min 0 W/m 6,4 km/h (2 Bft) 93,62 %
17.08.2021 02:26 11,8 C 11,1 C 10,6 C 92 % 1018,1 hPa 0,0 l/m 0 min 0 min 0 W/m 6,4 km/h (2 Bft) 97,87 %
17.08.2021 02:28 11,8 C 11,1 C 10,6 C 92 % 1018,0 hPa 0,0 l/m 0 min 0 min 0 W/m 12,9 km/h (3 Bft) 97,87 %
17.08.2021 02:30 11,8 C 11,1 C 10,6 C 92 % 1018,0 hPa 0,0 l/m 0 min 0 min 0 W/m 6,4 km/h (2 Bft) 100,00 %
17.08.2021 02:32 11,8 C 11,1 C 10,6 C 93 % 1018,0 hPa 0,0 l/m 0 min 0 min 0 W/m 6,4 km/h (2 Bft) 97,87 %
17.08.2021 02:34 11,8 C 11,1 C 10,6 C 93 % 1018,0 hPa 0,0 l/m 0 min 0 min 0 W/m 6,4 km/h (2 Bft) 100,00 %
17.08.2021 02:36 11,9 C 11,1 C 10,6 C 93 % 1018,1 hPa 0,0 l/m 0 min 0 min 0 W/m 9,7 km/h (2 Bft) 100,00 %
17.08.2021 02:38 11,9 C 11,1 C 10,6 C 93 % 1018,1 hPa 0,0 l/m 0 min 0 min 0 W/m 16,1 km/h (3 Bft) 100,00 %
17.08.2021 02:40 11,8 C 11,1 C 10,6 C 93 % 1018,1 hPa 0,0 l/m 0 min 0 min 0 W/m 6,4 km/h (2 Bft) 97,87 %
17.08.2021 02:42 11,9 C 11,1 C 10,6 C 93 % 1018,1 hPa 0,0 l/m 0 min 0 min 0 W/m 6,4 km/h (2 Bft) 97,83 %
17.08.2021 02:44 11,9 C 11,1 C 10,6 C 93 % 1018,1 hPa 0,0 l/m 0 min 0 min 0 W/m 6,4 km/h (2 Bft) 100,00 %
17.08.2021 02:46 11,9 C 11,1 C 10,6 C 93 % 1018,1 hPa 0,0 l/m 0 min 0 min 0 W/m 6,4 km/h (2 Bft) 100,00 %
17.08.2021 02:48 11,8 C 11,1 C 10,6 C 93 % 1018,0 hPa 0,0 l/m 0 min 0 min 0 W/m 9,7 km/h (2 Bft) 100,00 %
17.08.2021 02:50 11,8 C 11,1 C 10,6 C 93 % 1018,0 hPa 0,0 l/m 0 min 0 min 0 W/m 12,9 km/h (3 Bft) 97,87 %
17.08.2021 02:52 11,8 C 11,1 C 10,6 C 93 % 1018,0 hPa 0,0 l/m 0 min 0 min 0 W/m 6,4 km/h (2 Bft) 100,00 %
17.08.2021 02:54 11,8 C 11,1 C 10,6 C 93 % 1018,0 hPa 0,0 l/m 0 min 0 min 0 W/m 9,7 km/h (2 Bft) 100,00 %
17.08.2021 02:56 11,8 C 11,1 C 10,6 C 93 % 1018,0 hPa 0,0 l/m 0 min 0 min 0 W/m 6,4 km/h (2 Bft) 100,00 %
17.08.2021 02:58 11,8 C 11,1 C 10,6 C 93 % 1018,0 hPa 0,0 l/m 0 min 0 min 0 W/m 3,2 km/h (1 Bft) 95,74 %
17.08.2021 03:00 11,8 C 11,1 C 10,6 C 93 % 1018,0 hPa 0,0 l/m 0 min 0 min 0 W/m 3,2 km/h (1 Bft) 97,87 %
17.08.2021 03:02 11,8 C 11,1 C 10,6 C 94 % 1018,0 hPa 0,0 l/m 0 min 0 min 0 W/m 6,4 km/h (2 Bft) 95,74 %
17.08.2021 03:04 11,8 C 11,1 C 10,6 C 94 % 1018,0 hPa 0,0 l/m 0 min 0 min 0 W/m 12,9 km/h (3 Bft) 95,65 %
17.08.2021 03:06 11,8 C 11,1 C 10,6 C 93 % 1018,0 hPa 0,0 l/m 0 min 0 min 0 W/m 3,2 km/h (1 Bft) 95,74 %
17.08.2021 03:08 11,8 C 11,1 C 10,6 C 94 % 1018,0 hPa 0,0 l/m 0 min 0 min 0 W/m 3,2 km/h (1 Bft) 93,62 %
17.08.2021 03:10 11,8 C 11,1 C 10,6 C 94 % 1018,0 hPa 0,0 l/m 0 min 0 min 0 W/m 9,7 km/h (2 Bft) 95,74 %
17.08.2021 03:12 11,8 C 11,1 C 10,6 C 94 % 1017,9 hPa 0,0 l/m 0 min 0 min 0 W/m 6,4 km/h (2 Bft) 95,74 %
17.08.2021 03:14 11,8 C 11,1 C 10,6 C 94 % 1018,0 hPa 0,0 l/m 0 min 0 min 0 W/m 9,7 km/h (2 Bft) 95,74 %
17.08.2021 03:16 11,8 C 11,1 C 10,6 C 94 % 1018,0 hPa 0,0 l/m 0 min 0 min 0 W/m 6,4 km/h (2 Bft) 95,65 %
17.08.2021 03:18 11,8 C 11,1 C 10,6 C 94 % 1018,0 hPa 0,0 l/m 0 min 0 min 0 W/m 3,2 km/h (1 Bft) 95,74 %
17.08.2021 03:20 11,8 C 11,1 C 10,6 C 94 % 1018,0 hPa 0,0 l/m 0 min 0 min 0 W/m 6,4 km/h (2 Bft) 95,74 %
17.08.2021 03:22 11,8 C 11,1 C 10,6 C 94 % 1017,9 hPa 0,0 l/m 0 min 0 min 0 W/m 9,7 km/h (2 Bft) 95,74 %
17.08.2021 03:24 11,8 C 11,1 C 10,6 C 94 % 1017,9 hPa 0,0 l/m 0 min 0 min 0 W/m 6,4 km/h (2 Bft) 93,62 %
17.08.2021 03:26 11,8 C 11,1 C 10,6 C 94 % 1018,0 hPa 0,0 l/m 0 min 0 min 0 W/m 6,4 km/h (2 Bft) 95,74 %
17.08.2021 03:28 11,8 C 11,1 C 10,6 C 94 % 1017,9 hPa 0,0 l/m 0 min 0 min 0 W/m 6,4 km/h (2 Bft) 95,65 %
17.08.2021 03:30 11,8 C 11,1 C 10,6 C 94 % 1017,9 hPa 0,0 l/m 0 min 0 min 0 W/m 3,2 km/h (1 Bft) 95,74 %
17.08.2021 03:32 11,8 C 11,1 C 10,6 C 94 % 1017,9 hPa 0,0 l/m 0 min 0 min 0 W/m 9,7 km/h (2 Bft) 97,87 %
17.08.2021 03:34 11,8 C 11,1 C 10,6 C 94 % 1017,9 hPa 0,0 l/m 0 min 0 min 0 W/m 6,4 km/h (2 Bft) 97,87 %
17.08.2021 03:36 11,8 C 11,1 C 10,6 C 94 % 1017,9 hPa 0,0 l/m 0 min 0 min 0 W/m 6,4 km/h (2 Bft) 97,87 %
17.08.2021 03:38 11,8 C 11,1 C 10,6 C 94 % 1017,9 hPa 0,0 l/m 0 min 0 min 0 W/m 6,4 km/h (2 Bft) 97,87 %
17.08.2021 03:40 11,8 C 11,1 C 10,6 C 94 % 1018,0 hPa 0,0 l/m 0 min 0 min 0 W/m 9,7 km/h (2 Bft) 97,83 %
17.08.2021 03:42 11,8 C 11,1 C 10,6 C 94 % 1018,0 hPa 0,0 l/m 0 min 0 min 0 W/m 9,7 km/h (2 Bft) 100,00 %
17.08.2021 03:44 11,8 C 11,1 C 10,6 C 94 % 1018,0 hPa 0,0 l/m 0 min 0 min 0 W/m 6,4 km/h (2 Bft) 100,00 %
17.08.2021 03:46 11,8 C 11,1 C 10,6 C 94 % 1018,0 hPa 0,0 l/m 0 min 0 min 0 W/m 3,2 km/h (1 Bft) 100,00 %
17.08.2021 03:48 11,8 C 11,1 C 10,6 C 94 % 1018,0 hPa 0,0 l/m 0 min 0 min 0 W/m 9,7 km/h (2 Bft) 100,00 %
17.08.2021 03:50 11,8 C 11,1 C 10,6 C 94 % 1018,0 hPa 0,0 l/m 0 min 0 min 0 W/m 9,7 km/h (2 Bft) 100,00 %
17.08.2021 03:52 11,8 C 11,1 C 10,6 C 94 % 1018,0 hPa 0,0 l/m 0 min 0 min 0 W/m 12,9 km/h (3 Bft) 100,00 %
17.08.2021 03:54 11,8 C 11,1 C 10,6 C 95 % 1018,0 hPa 0,0 l/m 0 min 0 min 0 W/m 6,4 km/h (2 Bft) 100,00 %
17.08.2021 03:56 11,8 C 11,1 C 10,6 C 95 % 1018,0 hPa 0,0 l/m 0 min 0 min 0 W/m 6,4 km/h (2 Bft) 97,87 %
17.08.2021 03:58 11,8 C 11,1 C 10,6 C 95 % 1018,0 hPa 0,0 l/m 0 min 0 min 0 W/m 6,4 km/h (2 Bft) 100,00 %
17.08.2021 04:00 11,8 C 11,1 C 10,6 C 95 % 1018,0 hPa 0,0 l/m 0 min 0 min 0 W/m 6,4 km/h (2 Bft) 100,00 %
17.08.2021 04:02 11,8 C 11,1 C 10,6 C 95 % 1018,0 hPa 0,0 l/m 0 min 0 min 0 W/m 3,2 km/h (1 Bft) 95,83 %
17.08.2021 04:04 11,7 C 11,1 C 10,6 C 95 % 1018,0 hPa 0,0 l/m 0 min 0 min 0 W/m 3,2 km/h (1 Bft) 95,65 %
17.08.2021 04:06 11,7 C 11,1 C 10,6 C 95 % 1018,0 hPa 0,0 l/m 0 min 0 min 0 W/m 9,7 km/h (2 Bft) 100,00 %
17.08.2021 04:08 11,7 C 11,1 C 10,6 C 95 % 1018,0 hPa 0,0 l/m 0 min 0 min 0 W/m 6,4 km/h (2 Bft) 100,00 %
17.08.2021 04:10 11,7 C 11,1 C 10,6 C 95 % 1018,0 hPa 0,0 l/m 0 min 0 min 0 W/m 6,4 km/h (2 Bft) 100,00 %
17.08.2021 04:12 11,7 C 11,1 C 10,6 C 95 % 1018,0 hPa 0,0 l/m 0 min 0 min 0 W/m 6,4 km/h (2 Bft) 100,00 %
17.08.2021 04:14 11,7 C 11,1 C 10,6 C 95 % 1018,0 hPa 0,0 l/m 0 min 0 min 0 W/m 6,4 km/h (2 Bft) 100,00 %
17.08.2021 04:16 11,6 C 11,1 C 10,6 C 95 % 1018,0 hPa 0,0 l/m 0 min 0 min 0 W/m 6,4 km/h (2 Bft) 100,00 %
17.08.2021 04:18 11,6 C 11,1 C 10,6 C 95 % 1018,0 hPa 0,0 l/m 0 min 0 min 0 W/m 6,4 km/h (2 Bft) 100,00 %
17.08.2021 04:20 11,6 C 11,1 C 10,6 C 95 % 1018,0 hPa 0,0 l/m 0 min 0 min 0 W/m 9,7 km/h (2 Bft) 100,00 %
17.08.2021 04:22 11,6 C 11,1 C 10,6 C 95 % 1018,0 hPa 0,0 l/m 0 min 0 min 0 W/m 9,7 km/h (2 Bft) 100,00 %
17.08.2021 04:24 11,6 C 11,1 C 10,6 C 95 % 1018,0 hPa 0,0 l/m 0 min 0 min 0 W/m 6,4 km/h (2 Bft) 100,00 %
17.08.2021 04:26 11,6 C 11,1 C 10,6 C 95 % 1018,0 hPa 0,0 l/m 0 min 0 min 0 W/m 9,7 km/h (2 Bft) 100,00 %
17.08.2021 04:28 11,6 C 11,1 C 10,6 C 95 % 1018,1 hPa 0,0 l/m 0 min 0 min 0 W/m 9,7 km/h (2 Bft) 100,00 %
17.08.2021 04:30 11,7 C 11,1 C 10,6 C 95 % 1018,0 hPa 0,0 l/m 0 min 0 min 0 W/m 6,4 km/h (2 Bft) 100,00 %
17.08.2021 04:32 11,7 C 11,1 C 10,6 C 95 % 1018,0 hPa 0,0 l/m 0 min 0 min 0 W/m 3,2 km/h (1 Bft) 100,00 %
17.08.2021 04:34 11,7 C 11,1 C 10,6 C 95 % 1018,1 hPa 0,0 l/m 0 min 0 min 0 W/m 3,2 km/h (1 Bft) 100,00 %
17.08.2021 04:36 11,7 C 11,1 C 10,6 C 95 % 1018,1 hPa 0,0 l/m 0 min 0 min 0 W/m 6,4 km/h (2 Bft) 97,83 %
17.08.2021 04:38 11,7 C 11,1 C 10,6 C 95 % 1018,1 hPa 0,0 l/m 0 min 0 min 0 W/m 3,2 km/h (1 Bft) 100,00 %
17.08.2021 04:40 11,7 C 11,1 C 10,6 C 95 % 1018,2 hPa 0,0 l/m 0 min 0 min 0 W/m 3,2 km/h (1 Bft) 97,87 %
17.08.2021 04:42 11,7 C 11,1 C 10,6 C 95 % 1018,1 hPa 0,0 l/m 0 min 0 min 0 W/m 6,4 km/h (2 Bft) 97,87 %
17.08.2021 04:44 11,7 C 11,1 C 10,6 C 95 % 1018,1 hPa 0,0 l/m 0 min 0 min 0 W/m 9,7 km/h (2 Bft) 100,00 %
17.08.2021 04:46 11,7 C 11,1 C 10,6 C 95 % 1018,2 hPa 0,0 l/m 0 min 0 min 0 W/m 3,2 km/h (1 Bft) 97,87 %
17.08.2021 04:48 11,7 C 11,1 C 10,6 C 95 % 1018,2 hPa 0,0 l/m 0 min 0 min 0 W/m 6,4 km/h (2 Bft) 95,65 %
17.08.2021 04:50 11,7 C 11,1 C 10,6 C 95 % 1018,1 hPa 0,0 l/m 0 min 0 min 0 W/m 3,2 km/h (1 Bft) 95,74 %
17.08.2021 04:52 11,7 C 11,1 C 10,6 C 95 % 1018,1 hPa 0,0 l/m 0 min 0 min 0 W/m 3,2 km/h (1 Bft) 95,74 %
17.08.2021 04:54 11,6 C 11,1 C 10,6 C 95 % 1018,2 hPa 0,0 l/m 0 min 0 min 0 W/m 3,2 km/h (1 Bft) 95,74 %
17.08.2021 04:56 11,6 C 10,6 C 10,6 C 95 % 1018,2 hPa 0,0 l/m 0 min 0 min 0 W/m 3,2 km/h (1 Bft) 93,62 %
17.08.2021 04:58 11,6 C 10,6 C 10,6 C 95 % 1018,2 hPa 0,0 l/m 0 min 0 min 0 W/m 0,0 km/h (0 Bft) 95,65 %
17.08.2021 05:00 11,6 C 10,6 C 10,6 C 95 % 1018,2 hPa 0,0 l/m 0 min 0 min 0 W/m 3,2 km/h (1 Bft) 93,62 %
17.08.2021 05:02 11,5 C 10,6 C 10,6 C 95 % 1018,2 hPa 0,0 l/m 0 min 0 min 0 W/m 3,2 km/h (1 Bft) 95,83 %
17.08.2021 05:04 11,5 C 10,6 C 10,6 C 95 % 1018,2 hPa 0,0 l/m 0 min 0 min 0 W/m 3,2 km/h (1 Bft) 95,74 %
17.08.2021 05:06 11,5 C 10,6 C 10,6 C 95 % 1018,2 hPa 0,0 l/m 0 min 0 min 0 W/m 3,2 km/h (1 Bft) 95,74 %
17.08.2021 05:08 11,5 C 10,6 C 10,6 C 95 % 1018,1 hPa 0,0 l/m 0 min 0 min 0 W/m 3,2 km/h (1 Bft) 95,74 %
17.08.2021 05:10 11,5 C 10,6 C 10,6 C 95 % 1018,2 hPa 0,0 l/m 0 min 0 min 0 W/m 3,2 km/h (1 Bft) 95,65 %
17.08.2021 05:12 11,5 C 10,6 C 10,6 C 95 % 1018,2 hPa 0,0 l/m 0 min 0 min 0 W/m 12,9 km/h (3 Bft) 95,74 %
17.08.2021 05:14 11,4 C 10,6 C 10,6 C 95 % 1018,2 hPa 0,0 l/m 0 min 0 min 0 W/m 3,2 km/h (1 Bft) 95,74 %
17.08.2021 05:16 11,4 C 10,6 C 10,0 C 95 % 1018,1 hPa 0,0 l/m 0 min 0 min 0 W/m 0,0 km/h (0 Bft) 91,49 %
17.08.2021 05:18 11,4 C 10,6 C 10,0 C 95 % 1018,2 hPa 0,0 l/m 0 min 0 min 0 W/m 3,2 km/h (1 Bft) 95,74 %
17.08.2021 05:20 11,4 C 10,6 C 10,0 C 95 % 1018,2 hPa 0,0 l/m 0 min 0 min 0 W/m 0,0 km/h (0 Bft) 97,87 %
17.08.2021 05:22 11,4 C 10,6 C 10,0 C 95 % 1018,1 hPa 0,2 l/m 0 min 0 min 0 W/m 3,2 km/h (1 Bft) 95,65 %
17.08.2021 05:24 11,3 C 10,6 C 10,0 C 95 % 1018,2 hPa 0,0 l/m 0 min 0 min 0 W/m 3,2 km/h (1 Bft) 97,87 %
17.08.2021 05:26 11,3 C 10,6 C 10,0 C 95 % 1018,1 hPa 0,0 l/m 0 min 0 min 0 W/m 0,0 km/h (0 Bft) 97,87 %
17.08.2021 05:28 11,3 C 10,6 C 10,6 C 95 % 1018,1 hPa 0,0 l/m 0 min 0 min 0 W/m 0,0 km/h (0 Bft) 97,87 %
17.08.2021 05:30 11,3 C 10,6 C 10,0 C 95 % 1018,2 hPa 0,0 l/m 0 min 0 min 0 W/m 0,0 km/h (0 Bft) 97,87 %
17.08.2021 05:32 11,3 C 10,6 C 10,0 C 95 % 1018,1 hPa 0,0 l/m 0 min 0 min 0 W/m 3,2 km/h (1 Bft) 95,74 %
17.08.2021 05:34 11,3 C 10,6 C 10,0 C 95 % 1018,1 hPa 0,0 l/m 0 min 0 min 0 W/m 3,2 km/h (1 Bft) 93,48 %
17.08.2021 05:36 11,3 C 10,6 C 10,0 C 95 % 1018,1 hPa 0,0 l/m 0 min 0 min 0 W/m 3,2 km/h (1 Bft) 95,74 %
17.08.2021 05:38 11,3 C 10,6 C 10,0 C 95 % 1018,1 hPa 0,0 l/m 0 min 0 min 0 W/m 3,2 km/h (1 Bft) 95,74 %
17.08.2021 05:40 11,3 C 10,6 C 10,0 C 95 % 1018,0 hPa 0,0 l/m 0 min 0 min 0 W/m 6,4 km/h (2 Bft) 93,62 %
17.08.2021 05:42 11,3 C 10,6 C 10,0 C 95 % 1018,0 hPa 0,0 l/m 0 min 0 min 0 W/m 3,2 km/h (1 Bft) 97,87 %
17.08.2021 05:44 11,3 C 10,6 C 10,0 C 95 % 1018,0 hPa 0,0 l/m 0 min 0 min 0 W/m 3,2 km/h (1 Bft) 97,87 %
17.08.2021 05:46 11,3 C 10,6 C 10,0 C 95 % 1018,1 hPa 0,0 l/m 0 min 0 min 0 W/m 6,4 km/h (2 Bft) 97,83 %
17.08.2021 05:48 11,3 C 10,6 C 10,6 C 95 % 1018,1 hPa 0,0 l/m 0 min 0 min 0 W/m 3,2 km/h (1 Bft) 97,87 %
17.08.2021 05:50 11,3 C 10,6 C 10,6 C 95 % 1018,1 hPa 0,0 l/m 0 min 0 min 0 W/m 3,2 km/h (1 Bft) 95,74 %
17.08.2021 05:52 11,3 C 10,6 C 10,0 C 95 % 1018,1 hPa 0,0 l/m 0 min 0 min 0 W/m 3,2 km/h (1 Bft) 97,87 %
17.08.2021 05:54 11,3 C 10,6 C 10,0 C 95 % 1018,1 hPa 0,0 l/m 0 min 0 min 0 W/m 9,7 km/h (2 Bft) 97,87 %
17.08.2021 05:56 11,3 C 10,6 C 10,6 C 95 % 1018,2 hPa 0,0 l/m 0 min 0 min 0 W/m 9,7 km/h (2 Bft) 97,87 %
17.08.2021 05:58 11,3 C 10,6 C 10,6 C 95 % 1018,2 hPa 0,0 l/m 0 min 0 min 0 W/m 3,2 km/h (1 Bft) 95,65 %
17.08.2021 06:00 11,4 C 10,6 C 10,6 C 95 % 1018,1 hPa 0,0 l/m 0 min 0 min 0 W/m 3,2 km/h (1 Bft) 97,87 %
17.08.2021 06:02 11,4 C 10,6 C 10,6 C 96 % 1018,1 hPa 0,0 l/m 0 min 0 min 0 W/m 3,2 km/h (1 Bft) 97,87 %
17.08.2021 06:04 11,4 C 10,6 C 10,6 C 96 % 1018,1 hPa 0,0 l/m 0 min 0 min 0 W/m 3,2 km/h (1 Bft) 95,74 %
17.08.2021 06:08 11,4 C 10,6 C 10,6 C 96 % 1018,1 hPa 0,0 l/m 0 min 0 min 0 W/m 3,2 km/h (1 Bft) 97,85 %
17.08.2021 06:10 11,4 C 10,6 C 10,6 C 96 % 1018,0 hPa 0,0 l/m 0 min 0 min 0 W/m 3,2 km/h (1 Bft) 97,87 %
17.08.2021 06:12 11,4 C 10,6 C 10,6 C 96 % 1018,1 hPa 0,0 l/m 0 min 0 min 0 W/m 3,2 km/h (1 Bft) 97,87 %
17.08.2021 06:14 11,4 C 10,6 C 10,6 C 96 % 1018,0 hPa 0,0 l/m 0 min 0 min 0 W/m 3,2 km/h (1 Bft) 97,87 %
17.08.2021 06:16 11,4 C 10,6 C 10,6 C 96 % 1018,0 hPa 0,0 l/m 0 min 0 min 0 W/m 6,4 km/h (2 Bft) 97,87 %
17.08.2021 06:18 11,4 C 10,6 C 10,6 C 96 % 1018,0 hPa 0,0 l/m 0 min 0 min 0 W/m 6,4 km/h (2 Bft) 97,87 %
17.08.2021 06:20 11,4 C 10,6 C 10,6 C 96 % 1018,0 hPa 0,0 l/m 0 min 0 min 0 W/m 3,2 km/h (1 Bft) 97,83 %
17.08.2021 06:22 11,4 C 10,6 C 10,6 C 96 % 1018,0 hPa 0,0 l/m 0 min 0 min 0 W/m 6,4 km/h (2 Bft) 54,35 %
17.08.2021 06:24 11,5 C 10,6 C 10,6 C 96 % 1018,1 hPa 0,0 l/m 0 min 0 min 5 W/m 6,4 km/h (2 Bft) 100,00 %
17.08.2021 06:26 11,5 C 10,6 C 10,6 C 96 % 1018,1 hPa 0,0 l/m 0 min 0 min 7 W/m 6,4 km/h (2 Bft) 100,00 %
17.08.2021 06:28 11,5 C 11,1 C 10,6 C 96 % 1018,1 hPa 0,0 l/m 0 min 0 min 8 W/m 12,9 km/h (3 Bft) 97,87 %
17.08.2021 06:30 11,6 C 11,1 C 10,6 C 96 % 1018,1 hPa 0,0 l/m 0 min 0 min 9 W/m 6,4 km/h (2 Bft) 100,00 %
17.08.2021 06:32 11,6 C 11,1 C 10,6 C 96 % 1018,1 hPa 0,0 l/m 0 min 0 min 9 W/m 9,7 km/h (2 Bft) 100,00 %
17.08.2021 06:34 11,7 C 11,1 C 10,6 C 96 % 1018,2 hPa 0,0 l/m 0 min 0 min 9 W/m 6,4 km/h (2 Bft) 100,00 %
17.08.2021 06:36 11,8 C 11,1 C 10,6 C 96 % 1018,2 hPa 0,0 l/m 0 min 0 min 9 W/m 6,4 km/h (2 Bft) 100,00 %
17.08.2021 06:38 11,8 C 11,1 C 11,1 C 96 % 1018,3 hPa 0,0 l/m 0 min 0 min 11 W/m 9,7 km/h (2 Bft) 97,87 %
17.08.2021 06:40 11,8 C 11,7 C 11,1 C 96 % 1018,2 hPa 0,0 l/m 0 min 0 min 11 W/m 12,9 km/h (3 Bft) 97,87 %
17.08.2021 06:42 11,9 C 11,7 C 11,1 C 96 % 1018,2 hPa 0,0 l/m 0 min 0 min 11 W/m 6,4 km/h (2 Bft) 97,87 %
17.08.2021 06:44 11,9 C 11,7 C 11,1 C 96 % 1018,3 hPa 0,0 l/m 0 min 0 min 14 W/m 12,9 km/h (3 Bft) 97,83 %
17.08.2021 06:46 11,9 C 11,7 C 11,1 C 96 % 1018,3 hPa 0,0 l/m 0 min 0 min 16 W/m 3,2 km/h (1 Bft) 97,87 %
17.08.2021 06:48 11,9 C 11,7 C 11,1 C 96 % 1018,3 hPa 0,0 l/m 0 min 0 min 17 W/m 12,9 km/h (3 Bft) 97,87 %
17.08.2021 06:50 11,9 C 11,7 C 11,1 C 96 % 1018,3 hPa 0,0 l/m 0 min 0 min 18 W/m 3,2 km/h (1 Bft) 95,74 %
17.08.2021 06:52 11,9 C 11,7 C 11,1 C 96 % 1018,3 hPa 0,0 l/m 0 min 0 min 21 W/m 6,4 km/h (2 Bft) 97,87 %
17.08.2021 06:54 12,0 C 11,7 C 11,1 C 96 % 1018,4 hPa 0,0 l/m 0 min 0 min 24 W/m 3,2 km/h (1 Bft) 97,87 %
17.08.2021 06:56 12,0 C 11,7 C 11,1 C 96 % 1018,4 hPa 0,0 l/m 0 min 0 min 25 W/m 6,4 km/h (2 Bft) 93,48 %
17.08.2021 06:58 12,0 C 11,7 C 11,1 C 96 % 1018,4 hPa 0,0 l/m 0 min 0 min 27 W/m 9,7 km/h (2 Bft) 95,74 %
17.08.2021 07:00 12,0 C 11,7 C 11,1 C 96 % 1018,5 hPa 0,0 l/m 0 min 0 min 28 W/m 9,7 km/h (2 Bft) 97,87 %
17.08.2021 07:02 12,0 C 11,7 C 11,1 C 96 % 1018,4 hPa 0,0 l/m 0 min 0 min 29 W/m 12,9 km/h (3 Bft) 95,74 %
17.08.2021 07:04 12,1 C 11,7 C 11,1 C 96 % 1018,5 hPa 0,0 l/m 0 min 0 min 30 W/m 6,4 km/h (2 Bft) 97,87 %
17.08.2021 07:06 12,1 C 11,7 C 11,1 C 96 % 1018,5 hPa 0,0 l/m 0 min 0 min 32 W/m 9,7 km/h (2 Bft) 97,87 %
17.08.2021 07:08 12,1 C 11,7 C 11,1 C 96 % 1018,5 hPa 0,0 l/m 0 min 0 min 33 W/m 12,9 km/h (3 Bft) 100,00 %
17.08.2021 07:10 12,1 C 11,7 C 11,1 C 96 % 1018,5 hPa 0,0 l/m 0 min 0 min 33 W/m 6,4 km/h (2 Bft) 100,00 %
17.08.2021 07:12 12,1 C 11,7 C 11,1 C 96 % 1018,6 hPa 0,0 l/m 0 min 0 min 33 W/m 6,4 km/h (2 Bft) 100,00 %
17.08.2021 07:14 12,2 C 11,7 C 11,1 C 96 % 1018,6 hPa 0,0 l/m 0 min 0 min 32 W/m 6,4 km/h (2 Bft) 100,00 %
17.08.2021 07:16 12,2 C 11,7 C 11,7 C 96 % 1018,6 hPa 0,0 l/m 0 min 0 min 30 W/m 9,7 km/h (2 Bft) 100,00 %
17.08.2021 07:18 12,2 C 11,7 C 11,1 C 96 % 1018,5 hPa 0,0 l/m 0 min 0 min 28 W/m 6,4 km/h (2 Bft) 100,00 %
17.08.2021 07:20 12,3 C 11,7 C 11,1 C 96 % 1018,5 hPa 0,0 l/m 0 min 0 min 28 W/m 6,4 km/h (2 Bft) 100,00 %
17.08.2021 07:22 12,2 C 11,7 C 11,1 C 96 % 1018,5 hPa 0,0 l/m 0 min 0 min 30 W/m 3,2 km/h (1 Bft) 100,00 %
17.08.2021 07:24 12,3 C 11,7 C 11,7 C 96 % 1018,5 hPa 0,0 l/m 0 min 0 min 27 W/m 6,4 km/h (2 Bft) 100,00 %
17.08.2021 07:26 12,3 C 11,7 C 11,7 C 96 % 1018,5 hPa 0,0 l/m 0 min 0 min 26 W/m 6,4 km/h (2 Bft) 100,00 %
17.08.2021 07:28 12,3 C 11,7 C 11,7 C 96 % 1018,5 hPa 0,0 l/m 0 min 0 min 26 W/m 6,4 km/h (2 Bft) 100,00 %
17.08.2021 07:30 12,3 C 11,7 C 11,7 C 96 % 1018,5 hPa 0,0 l/m 0 min 0 min 29 W/m 9,7 km/h (2 Bft) 100,00 %
17.08.2021 07:32 12,3 C 11,7 C 11,7 C 96 % 1018,6 hPa 0,0 l/m 0 min 0 min 32 W/m 9,7 km/h (2 Bft) 97,87 %
17.08.2021 07:34 12,3 C 11,7 C 11,7 C 96 % 1018,6 hPa 0,0 l/m 0 min 0 min 39 W/m 6,4 km/h (2 Bft) 100,00 %
17.08.2021 07:36 12,3 C 11,7 C 11,7 C 96 % 1018,6 hPa 0,0 l/m 0 min 0 min 48 W/m 6,4 km/h (2 Bft) 100,00 %
17.08.2021 07:38 12,3 C 12,2 C 11,7 C 96 % 1018,6 hPa 0,0 l/m 0 min 0 min 56 W/m 3,2 km/h (1 Bft) 100,00 %
17.08.2021 07:40 12,3 C 12,2 C 11,7 C 96 % 1018,6 hPa 0,0 l/m 0 min 0 min 66 W/m 9,7 km/h (2 Bft) 100,00 %
17.08.2021 07:42 12,4 C 12,2 C 11,7 C 96 % 1018,6 hPa 0,0 l/m 0 min 0 min 74 W/m 6,4 km/h (2 Bft) 100,00 %
17.08.2021 07:44 12,4 C 12,2 C 11,7 C 96 % 1018,6 hPa 0,0 l/m 0 min 0 min 78 W/m 12,9 km/h (3 Bft) 97,87 %
17.08.2021 07:46 12,4 C 12,2 C 11,7 C 96 % 1018,6 hPa 0,0 l/m 0 min 0 min 82 W/m 9,7 km/h (2 Bft) 100,00 %
17.08.2021 07:48 12,4 C 12,2 C 11,7 C 96 % 1018,6 hPa 0,0 l/m 0 min 0 min 83 W/m 12,9 km/h (3 Bft) 100,00 %
17.08.2021 07:50 12,5 C 12,2 C 12,3 C 96 % 1018,6 hPa 0,0 l/m 0 min 0 min 82 W/m 12,9 km/h (3 Bft) 97,87 %
17.08.2021 07:52 12,5 C 12,2 C 12,3 C 96 % 1018,7 hPa 0,0 l/m 0 min 0 min 81 W/m 12,9 km/h (3 Bft) 95,74 %
17.08.2021 07:54 12,5 C 12,2 C 12,3 C 96 % 1018,7 hPa 0,0 l/m 0 min 0 min 87 W/m 9,7 km/h (2 Bft) 95,74 %
17.08.2021 07:56 12,5 C 12,2 C 12,3 C 96 % 1018,6 hPa 0,0 l/m 0 min 0 min 98 W/m 16,1 km/h (3 Bft) 95,74 %
17.08.2021 07:58 12,6 C 12,8 C 12,3 C 96 % 1018,6 hPa 0,0 l/m 2 min 0 min 113 W/m 9,7 km/h (2 Bft) 97,87 %
17.08.2021 08:00 12,6 C 12,8 C 12,3 C 96 % 1018,7 hPa 0,0 l/m 2 min 0 min 119 W/m 12,9 km/h (3 Bft) 95,65 %
17.08.2021 08:02 12,7 C 12,8 C 12,3 C 96 % 1018,7 hPa 0,0 l/m 0 min 0 min 106 W/m 6,4 km/h (2 Bft) 95,74 %
17.08.2021 08:04 12,7 C 12,8 C 12,3 C 96 % 1018,6 hPa 0,0 l/m 0 min 0 min 98 W/m 12,9 km/h (3 Bft) 95,74 %
17.08.2021 08:06 12,8 C 12,8 C 12,3 C 96 % 1018,6 hPa 0,0 l/m 0 min 0 min 110 W/m 12,9 km/h (3 Bft) 95,74 %
17.08.2021 08:08 12,8 C 12,8 C 12,3 C 96 % 1018,6 hPa 0,0 l/m 0 min 0 min 107 W/m 9,7 km/h (2 Bft) 95,74 %
17.08.2021 08:10 12,9 C 12,8 C 12,3 C 96 % 1018,6 hPa 0,0 l/m 0 min 0 min 97 W/m 6,4 km/h (2 Bft) 93,62 %
17.08.2021 08:12 12,9 C 12,8 C 12,8 C 96 % 1018,6 hPa 0,0 l/m 0 min 0 min 99 W/m 6,4 km/h (2 Bft) 95,65 %
17.08.2021 08:14 12,9 C 12,8 C 12,8 C 96 % 1018,5 hPa 0,0 l/m 0 min 0 min 115 W/m 16,1 km/h (3 Bft) 95,74 %
17.08.2021 08:16 13,0 C 12,8 C 12,8 C 96 % 1018,6 hPa 0,0 l/m 0 min 0 min 127 W/m 12,9 km/h (3 Bft) 95,74 %
17.08.2021 08:18 13,0 C 13,3 C 12,8 C 96 % 1018,6 hPa 0,0 l/m 0 min 0 min 120 W/m 3,2 km/h (1 Bft) 95,74 %
17.08.2021 08:20 13,0 C 13,3 C 12,8 C 96 % 1018,7 hPa 0,0 l/m 0 min 0 min 130 W/m 9,7 km/h (2 Bft) 95,74 %
17.08.2021 08:22 13,1 C 13,3 C 12,8 C 96 % 1018,7 hPa 0,0 l/m 2 min 0 min 159 W/m 9,7 km/h (2 Bft) 93,48 %
17.08.2021 08:24 13,1 C 13,3 C 12,8 C 96 % 1018,7 hPa 0,0 l/m 2 min 0 min 169 W/m 6,4 km/h (2 Bft) 95,74 %
17.08.2021 08:26 13,2 C 13,3 C 12,8 C 96 % 1018,7 hPa 0,0 l/m 2 min 0 min 150 W/m 6,4 km/h (2 Bft) 91,49 %
17.08.2021 08:28 13,3 C 13,3 C 13,4 C 96 % 1018,8 hPa 0,0 l/m 0 min 0 min 148 W/m 6,4 km/h (2 Bft) 97,87 %
17.08.2021 08:30 13,3 C 13,9 C 13,4 C 96 % 1018,8 hPa 0,0 l/m 0 min 0 min 150 W/m 9,7 km/h (2 Bft) 91,49 %
17.08.2021 08:32 13,4 C 13,9 C 13,4 C 96 % 1018,7 hPa 0,0 l/m 0 min 0 min 142 W/m 9,7 km/h (2 Bft) 85,11 %
17.08.2021 08:34 13,4 C 13,9 C 13,4 C 96 % 1018,7 hPa 0,0 l/m 0 min 0 min 140 W/m 9,7 km/h (2 Bft) 84,78 %
17.08.2021 08:36 13,4 C 13,9 C 13,4 C 96 % 1018,7 hPa 0,0 l/m 0 min 0 min 137 W/m 12,9 km/h (3 Bft) 89,36 %
17.08.2021 08:38 13,4 C 13,9 C 13,4 C 96 % 1018,7 hPa 0,0 l/m 0 min 0 min 148 W/m 12,9 km/h (3 Bft) 93,62 %
17.08.2021 08:40 13,5 C 13,9 C 13,4 C 96 % 1018,6 hPa 0,0 l/m 0 min 0 min 161 W/m 12,9 km/h (3 Bft) 95,74 %
17.08.2021 08:42 13,5 C 13,9 C 13,4 C 96 % 1018,6 hPa 0,0 l/m 2 min 0 min 174 W/m 12,9 km/h (3 Bft) 93,62 %
17.08.2021 08:44 13,6 C 13,9 C 13,4 C 96 % 1018,7 hPa 0,0 l/m 2 min 0 min 179 W/m 12,9 km/h (3 Bft) 95,74 %
17.08.2021 08:46 13,6 C 13,9 C 13,4 C 96 % 1018,7 hPa 0,0 l/m 2 min 0 min 195 W/m 9,7 km/h (2 Bft) 80,43 %
17.08.2021 08:47 13,6 C 13,9 C 13,4 C 96 % 1018,6 hPa 0,0 l/m 1 min 0 min 195 W/m 16,1 km/h (3 Bft) 89,36 %
17.08.2021 08:50 13,7 C 13,9 C 13,4 C 96 % 1018,6 hPa 0,0 l/m 0 min 0 min 144 W/m 12,9 km/h (3 Bft) 95,74 %
17.08.2021 08:52 13,8 C 13,9 C 13,4 C 96 % 1018,5 hPa 0,0 l/m 0 min 0 min 139 W/m 6,4 km/h (2 Bft) 52,17 %
17.08.2021 08:54 13,8 C 13,9 C 13,4 C 96 % 1018,5 hPa 0,0 l/m 0 min 0 min 135 W/m 12,9 km/h (3 Bft) 93,62 %
17.08.2021 08:56 13,9 C 13,9 C 13,4 C 96 % 1018,4 hPa 0,0 l/m 0 min 0 min 138 W/m 12,9 km/h (3 Bft) 95,74 %
17.08.2021 08:58 13,9 C 14,4 C 13,4 C 96 % 1018,5 hPa 0,0 l/m 0 min 0 min 149 W/m 16,1 km/h (3 Bft) 95,65 %
17.08.2021 09:00 13,9 C 14,4 C 13,9 C 95 % 1018,5 hPa 0,0 l/m 0 min 0 min 167 W/m 19,3 km/h (3 Bft) 97,87 %
17.08.2021 09:02 14,0 C 14,4 C 13,9 C 96 % 1018,5 hPa 0,0 l/m 0 min 0 min 173 W/m 9,7 km/h (2 Bft) 95,74 %
17.08.2021 09:04 14,0 C 14,4 C 13,9 C 95 % 1018,5 hPa 0,0 l/m 0 min 0 min 177 W/m 12,9 km/h (3 Bft) 97,87 %
17.08.2021 09:06 14,1 C 14,4 C 13,9 C 95 % 1018,6 hPa 0,0 l/m 0 min 0 min 184 W/m 16,1 km/h (3 Bft) 100,00 %
17.08.2021 09:08 14,2 C 14,4 C 13,9 C 95 % 1018,6 hPa 0,0 l/m 0 min 0 min 194 W/m 16,1 km/h (3 Bft) 100,00 %
17.08.2021 09:10 14,2 C 14,4 C 13,9 C 95 % 1018,7 hPa 0,0 l/m 2 min 0 min 206 W/m 12,9 km/h (3 Bft) 100,00 %
17.08.2021 09:12 14,2 C 15,0 C 13,9 C 95 % 1018,6 hPa 0,0 l/m 2 min 0 min 281 W/m 16,1 km/h (3 Bft) 100,00 %
17.08.2021 09:14 14,2 C 15,0 C 13,9 C 95 % 1018,6 hPa 0,0 l/m 2 min 0 min 257 W/m 16,1 km/h (3 Bft) 100,00 %
17.08.2021 09:16 14,3 C 15,0 C 13,9 C 95 % 1018,5 hPa 0,0 l/m 0 min 0 min 207 W/m 19,3 km/h (3 Bft) 100,00 %
17.08.2021 09:18 14,3 C 15,0 C 13,9 C 94 % 1018,5 hPa 0,0 l/m 0 min 0 min 185 W/m 19,3 km/h (3 Bft) 100,00 %
17.08.2021 09:20 14,3 C 14,4 C 13,9 C 94 % 1018,5 hPa 0,0 l/m 0 min 0 min 157 W/m 16,1 km/h (3 Bft) 100,00 %
17.08.2021 09:22 14,4 C 14,4 C 13,9 C 94 % 1018,7 hPa 0,0 l/m 0 min 0 min 151 W/m 12,9 km/h (3 Bft) 100,00 %
17.08.2021 09:24 14,4 C 14,4 C 13,9 C 94 % 1018,7 hPa 0,0 l/m 0 min 0 min 147 W/m 12,9 km/h (3 Bft) 100,00 %
17.08.2021 09:26 14,4 C 14,4 C 13,9 C 94 % 1018,7 hPa 0,0 l/m 0 min 0 min 130 W/m 22,5 km/h (4 Bft) 100,00 %
17.08.2021 09:28 14,4 C 14,4 C 13,9 C 94 % 1018,7 hPa 0,0 l/m 0 min 0 min 127 W/m 9,7 km/h (2 Bft) 100,00 %
17.08.2021 09:30 14,4 C 14,4 C 13,9 C 93 % 1018,6 hPa 0,0 l/m 0 min 0 min 133 W/m 16,1 km/h (3 Bft) 100,00 %
17.08.2021 09:32 14,4 C 14,4 C 13,9 C 94 % 1018,7 hPa 0,0 l/m 0 min 0 min 135 W/m 16,1 km/h (3 Bft) 100,00 %
17.08.2021 09:34 14,4 C 14,4 C 13,9 C 93 % 1018,6 hPa 0,0 l/m 0 min 0 min 150 W/m 16,1 km/h (3 Bft) 100,00 %
17.08.2021 09:36 14,4 C 14,4 C 13,9 C 93 % 1018,6 hPa 0,0 l/m 0 min 0 min 162 W/m 12,9 km/h (3 Bft) 100,00 %
17.08.2021 09:38 14,4 C 14,4 C 13,9 C 93 % 1018,6 hPa 0,0 l/m 0 min 0 min 180 W/m 6,4 km/h (2 Bft) 100,00 %
17.08.2021 09:40 14,5 C 14,4 C 13,9 C 93 % 1018,5 hPa 0,0 l/m 0 min 0 min 201 W/m 12,9 km/h (3 Bft) 100,00 %
17.08.2021 09:42 14,5 C 15,0 C 13,9 C 93 % 1018,5 hPa 0,0 l/m 0 min 0 min 200 W/m 12,9 km/h (3 Bft) 97,87 %
17.08.2021 09:44 14,6 C 15,0 C 14,5 C 93 % 1018,5 hPa 0,0 l/m 0 min 0 min 194 W/m 12,9 km/h (3 Bft) 100,00 %
17.08.2021 09:46 14,6 C 15,0 C 14,5 C 93 % 1018,5 hPa 0,0 l/m 0 min 0 min 196 W/m 12,9 km/h (3 Bft) 100,00 %
17.08.2021 09:48 14,6 C 15,0 C 14,5 C 93 % 1018,5 hPa 0,0 l/m 0 min 0 min 193 W/m 16,1 km/h (3 Bft) 100,00 %
17.08.2021 09:50 14,6 C 15,0 C 14,5 C 93 % 1018,6 hPa 0,0 l/m 0 min 0 min 204 W/m 16,1 km/h (3 Bft) 95,74 %
17.08.2021 09:52 14,7 C 15,0 C 14,5 C 92 % 1018,6 hPa 0,0 l/m 0 min 0 min 222 W/m 19,3 km/h (3 Bft) 100,00 %
17.08.2021 09:54 14,8 C 15,0 C 14,5 C 92 % 1018,6 hPa 0,0 l/m 0 min 0 min 220 W/m 16,1 km/h (3 Bft) 100,00 %
17.08.2021 09:56 14,8 C 15,0 C 14,5 C 92 % 1018,6 hPa 0,0 l/m 0 min 0 min 206 W/m 22,5 km/h (4 Bft) 100,00 %
17.08.2021 09:58 14,8 C 15,0 C 14,5 C 92 % 1018,7 hPa 0,0 l/m 0 min 0 min 206 W/m 19,3 km/h (3 Bft) 100,00 %
17.08.2021 10:00 14,8 C 15,0 C 14,5 C 92 % 1018,8 hPa 0,0 l/m 0 min 0 min 200 W/m 12,9 km/h (3 Bft) 100,00 %
17.08.2021 10:02 14,9 C 15,0 C 14,5 C 92 % 1018,8 hPa 0,0 l/m 0 min 0 min 197 W/m 19,3 km/h (3 Bft) 97,87 %
17.08.2021 10:04 14,9 C 15,0 C 14,5 C 91 % 1018,8 hPa 0,0 l/m 0 min 0 min 199 W/m 19,3 km/h (3 Bft) 100,00 %
17.08.2021 10:06 14,9 C 15,0 C 14,5 C 92 % 1018,8 hPa 0,0 l/m 0 min 0 min 231 W/m 12,9 km/h (3 Bft) 100,00 %
17.08.2021 10:08 15,0 C 15,0 C 14,5 C 91 % 1018,7 hPa 0,0 l/m 0 min 0 min 233 W/m 16,1 km/h (3 Bft) 100,00 %
17.08.2021 10:10 15,0 C 15,0 C 14,5 C 91 % 1018,8 hPa 0,0 l/m 0 min 0 min 233 W/m 16,1 km/h (3 Bft) 100,00 %
17.08.2021 10:12 15,0 C 15,0 C 14,5 C 91 % 1018,9 hPa 0,0 l/m 0 min 0 min 235 W/m 19,3 km/h (3 Bft) 100,00 %
17.08.2021 10:14 15,0 C 15,0 C 14,5 C 91 % 1018,8 hPa 0,0 l/m 0 min 0 min 232 W/m 16,1 km/h (3 Bft) 100,00 %
17.08.2021 10:16 15,1 C 15,6 C 14,5 C 91 % 1018,7 hPa 0,0 l/m 0 min 0 min 237 W/m 12,9 km/h (3 Bft) 100,00 %
17.08.2021 10:18 15,1 C 15,6 C 15,0 C 91 % 1018,6 hPa 0,0 l/m 0 min 0 min 245 W/m 12,9 km/h (3 Bft) 100,00 %
17.08.2021 10:20 15,2 C 15,6 C 15,0 C 90 % 1018,6 hPa 0,0 l/m 0 min 0 min 235 W/m 12,9 km/h (3 Bft) 100,00 %
17.08.2021 10:22 15,3 C 15,6 C 15,0 C 90 % 1018,4 hPa 0,0 l/m 0 min 0 min 213 W/m 16,1 km/h (3 Bft) 100,00 %
17.08.2021 10:24 15,3 C 15,6 C 14,5 C 90 % 1018,4 hPa 0,0 l/m 0 min 0 min 209 W/m 22,5 km/h (4 Bft) 100,00 %
17.08.2021 10:26 15,3 C 15,6 C 15,0 C 90 % 1018,5 hPa 0,0 l/m 0 min 0 min 234 W/m 12,9 km/h (3 Bft) 97,87 %
17.08.2021 10:28 15,3 C 15,6 C 15,0 C 90 % 1018,5 hPa 0,0 l/m 0 min 0 min 280 W/m 16,1 km/h (3 Bft) 100,00 %
17.08.2021 10:30 15,4 C 16,1 C 15,0 C 90 % 1018,5 hPa 0,0 l/m 2 min 0 min 292 W/m 22,5 km/h (4 Bft) 100,00 %
17.08.2021 10:32 15,5 C 16,1 C 15,0 C 90 % 1018,5 hPa 0,0 l/m 2 min 0 min 298 W/m 19,3 km/h (3 Bft) 97,83 %
17.08.2021 10:34 15,5 C 16,1 C 15,6 C 90 % 1018,5 hPa 0,0 l/m 2 min 0 min 373 W/m 16,1 km/h (3 Bft) 95,74 %
17.08.2021 10:36 15,6 C 16,7 C 15,6 C 89 % 1018,6 hPa 0,0 l/m 2 min 0 min 366 W/m 16,1 km/h (3 Bft) 95,74 %
17.08.2021 10:38 15,7 C 16,7 C 15,6 C 89 % 1018,6 hPa 0,0 l/m 2 min 0 min 310 W/m 19,3 km/h (3 Bft) 95,74 %
17.08.2021 10:40 15,8 C 16,7 C 15,6 C 89 % 1018,6 hPa 0,0 l/m 2 min 0 min 316 W/m 22,5 km/h (4 Bft) 95,74 %
17.08.2021 10:42 15,9 C 16,7 C 15,6 C 89 % 1018,5 hPa 0,0 l/m 2 min 0 min 341 W/m 16,1 km/h (3 Bft) 95,74 %
17.08.2021 10:44 15,9 C 16,7 C 15,6 C 89 % 1018,5 hPa 0,0 l/m 2 min 0 min 370 W/m 12,9 km/h (3 Bft) 93,48 %
17.08.2021 10:46 16,0 C 16,7 C 15,6 C 88 % 1018,7 hPa 0,0 l/m 2 min 0 min 421 W/m 22,5 km/h (4 Bft) 93,62 %
17.08.2021 10:48 16,1 C 16,7 C 15,6 C 88 % 1018,6 hPa 0,0 l/m 0 min 0 min 302 W/m 25,7 km/h (4 Bft) 93,62 %
17.08.2021 10:50 16,1 C 16,1 C 15,6 C 87 % 1018,7 hPa 0,0 l/m 0 min 0 min 283 W/m 22,5 km/h (4 Bft) 95,74 %
17.08.2021 10:52 16,1 C 16,1 C 15,6 C 86 % 1018,7 hPa 0,0 l/m 0 min 0 min 262 W/m 19,3 km/h (3 Bft) 95,74 %
17.08.2021 10:54 16,1 C 16,1 C 15,6 C 86 % 1018,7 hPa 0,0 l/m 0 min 0 min 282 W/m 12,9 km/h (3 Bft) 95,74 %
17.08.2021 10:56 16,2 C 16,7 C 15,6 C 86 % 1018,7 hPa 0,0 l/m 2 min 0 min 312 W/m 12,9 km/h (3 Bft) 93,48 %
17.08.2021 10:58 16,3 C 16,7 C 16,1 C 86 % 1018,7 hPa 0,0 l/m 2 min 0 min 330 W/m 12,9 km/h (3 Bft) 93,62 %
17.08.2021 11:00 16,3 C 17,2 C 16,1 C 86 % 1018,8 hPa 0,0 l/m 2 min 0 min 370 W/m 12,9 km/h (3 Bft) 93,62 %
17.08.2021 11:02 16,4 C 17,2 C 16,1 C 86 % 1018,8 hPa 0,0 l/m 2 min 0 min 372 W/m 16,1 km/h (3 Bft) 91,49 %
17.08.2021 11:04 16,5 C 17,8 C 16,7 C 86 % 1018,8 hPa 0,0 l/m 2 min 0 min 401 W/m 12,9 km/h (3 Bft) 93,62 %
17.08.2021 11:06 16,6 C 17,8 C 16,7 C 85 % 1018,8 hPa 0,0 l/m 2 min 0 min 375 W/m 19,3 km/h (3 Bft) 93,62 %
17.08.2021 11:08 16,7 C 17,2 C 16,7 C 85 % 1018,8 hPa 0,0 l/m 2 min 0 min 368 W/m 16,1 km/h (3 Bft) 93,48 %
17.08.2021 11:10 16,8 C 17,2 C 16,1 C 85 % 1018,8 hPa 0,0 l/m 2 min 0 min 327 W/m 12,9 km/h (3 Bft) 93,62 %
17.08.2021 11:12 16,8 C 17,2 C 16,1 C 84 % 1018,7 hPa 0,0 l/m 0 min 0 min 315 W/m 19,3 km/h (3 Bft) 97,87 %
17.08.2021 11:14 16,7 C 16,7 C 16,1 C 83 % 1018,7 hPa 0,0 l/m 0 min 0 min 322 W/m 25,7 km/h (4 Bft) 95,74 %
17.08.2021 11:16 16,6 C 16,7 C 15,6 C 83 % 1018,7 hPa 0,0 l/m 0 min 0 min 277 W/m 16,1 km/h (3 Bft) 95,74 %
17.08.2021 11:18 16,6 C 16,7 C 15,6 C 83 % 1018,7 hPa 0,0 l/m 0 min 0 min 249 W/m 16,1 km/h (3 Bft) 89,36 %
17.08.2021 11:20 16,5 C 16,7 C 15,6 C 83 % 1018,7 hPa 0,0 l/m 0 min 0 min 269 W/m 25,7 km/h (4 Bft) 93,48 %
17.08.2021 11:22 16,5 C 16,7 C 15,6 C 83 % 1018,6 hPa 0,0 l/m 0 min 0 min 284 W/m 25,7 km/h (4 Bft) 95,74 %
17.08.2021 11:24 16,5 C 16,7 C 15,6 C 82 % 1018,6 hPa 0,0 l/m 0 min 0 min 287 W/m 22,5 km/h (4 Bft) 97,87 %
17.08.2021 11:26 16,5 C 16,1 C 15,6 C 83 % 1018,6 hPa 0,0 l/m 0 min 0 min 288 W/m 25,7 km/h (4 Bft) 97,87 %
17.08.2021 11:28 16,4 C 16,1 C 15,6 C 82 % 1018,6 hPa 0,0 l/m 0 min 0 min 288 W/m 25,7 km/h (4 Bft) 91,49 %
17.08.2021 11:30 16,4 C 16,7 C 15,6 C 83 % 1018,5 hPa 0,0 l/m 0 min 0 min 293 W/m 16,1 km/h (3 Bft) 95,65 %
17.08.2021 11:32 16,4 C 16,7 C 15,6 C 83 % 1018,3 hPa 0,0 l/m 0 min 0 min 281 W/m 19,3 km/h (3 Bft) 97,87 %
17.08.2021 11:34 16,4 C 16,7 C 15,6 C 83 % 1018,4 hPa 0,0 l/m 0 min 0 min 275 W/m 19,3 km/h (3 Bft) 97,87 %
17.08.2021 11:36 16,4 C 16,1 C 15,6 C 83 % 1018,4 hPa 0,0 l/m 0 min 0 min 270 W/m 16,1 km/h (3 Bft) 97,87 %
17.08.2021 11:38 16,4 C 16,1 C 15,6 C 82 % 1018,4 hPa 0,0 l/m 0 min 0 min 288 W/m 22,5 km/h (4 Bft) 97,87 %
17.08.2021 11:40 16,4 C 16,7 C 15,6 C 83 % 1018,4 hPa 0,0 l/m 0 min 0 min 269 W/m 19,3 km/h (3 Bft) 97,87 %
17.08.2021 11:42 16,4 C 16,7 C 15,6 C 83 % 1018,4 hPa 0,0 l/m 0 min 0 min 306 W/m 16,1 km/h (3 Bft) 95,65 %
17.08.2021 11:44 16,4 C 16,7 C 15,6 C 83 % 1018,5 hPa 0,0 l/m 0 min 0 min 321 W/m 22,5 km/h (4 Bft) 97,87 %
17.08.2021 11:46 16,4 C 16,7 C 15,6 C 83 % 1018,5 hPa 0,0 l/m 0 min 0 min 325 W/m 19,3 km/h (3 Bft) 97,87 %
17.08.2021 11:48 16,5 C 16,7 C 15,6 C 83 % 1018,5 hPa 0,0 l/m 0 min 0 min 338 W/m 16,1 km/h (3 Bft) 97,87 %
17.08.2021 11:50 16,5 C 16,7 C 15,6 C 83 % 1018,5 hPa 0,0 l/m 0 min 0 min 341 W/m 19,3 km/h (3 Bft) 97,87 %
17.08.2021 11:52 16,5 C 16,7 C 15,6 C 82 % 1018,5 hPa 0,0 l/m 0 min 0 min 323 W/m 25,7 km/h (4 Bft) 97,87 %
17.08.2021 11:54 16,6 C 16,7 C 15,6 C 82 % 1018,5 hPa 0,0 l/m 0 min 0 min 277 W/m 19,3 km/h (3 Bft) 97,83 %
17.08.2021 11:56 16,6 C 16,7 C 15,6 C 81 % 1018,6 hPa 0,0 l/m 0 min 0 min 260 W/m 22,5 km/h (4 Bft) 97,87 %
17.08.2021 11:58 16,6 C 16,7 C 15,6 C 81 % 1018,7 hPa 0,0 l/m 0 min 0 min 238 W/m 19,3 km/h (3 Bft) 97,87 %
17.08.2021 12:00 16,6 C 16,7 C 15,6 C 81 % 1018,6 hPa 0,0 l/m 0 min 0 min 230 W/m 19,3 km/h (3 Bft) 97,87 %
17.08.2021 12:02 16,6 C 16,7 C 15,6 C 81 % 1018,7 hPa 0,0 l/m 0 min 0 min 237 W/m 16,1 km/h (3 Bft) 97,87 %
17.08.2021 12:04 16,6 C 16,7 C 15,6 C 81 % 1018,7 hPa 0,0 l/m 0 min 0 min 266 W/m 16,1 km/h (3 Bft) 97,87 %
17.08.2021 12:08 16,7 C 16,7 C 15,6 C 82 % 1018,8 hPa 0,0 l/m 0 min 0 min 316 W/m 16,1 km/h (3 Bft) 97,85 %
17.08.2021 12:10 16,8 C 16,7 C 15,6 C 82 % 1018,7 hPa 0,0 l/m 0 min 0 min 246 W/m 12,9 km/h (3 Bft) 97,87 %
17.08.2021 12:12 16,8 C 16,7 C 15,6 C 82 % 1018,8 hPa 0,0 l/m 0 min 0 min 227 W/m 12,9 km/h (3 Bft) 97,62 %
17.08.2021 12:14 16,8 C 16,7 C 15,6 C 82 % 1018,6 hPa 0,0 l/m 0 min 0 min 189 W/m 12,9 km/h (3 Bft) 100,00 %
17.08.2021 12:16 16,8 C 16,7 C 15,6 C 82 % 1018,5 hPa 0,0 l/m 0 min 0 min 199 W/m 6,4 km/h (2 Bft) 100,00 %
17.08.2021 12:18 16,8 C 16,7 C 15,6 C 81 % 1018,6 hPa 0,0 l/m 0 min 0 min 198 W/m 22,5 km/h (4 Bft) 100,00 %
17.08.2021 12:20 16,7 C 16,7 C 15,6 C 81 % 1018,6 hPa 0,0 l/m 0 min 0 min 176 W/m 22,5 km/h (4 Bft) 100,00 %
17.08.2021 12:22 16,6 C 16,1 C 15,0 C 81 % 1018,5 hPa 0,0 l/m 0 min 0 min 181 W/m 19,3 km/h (3 Bft) 100,00 %
17.08.2021 12:24 16,6 C 16,1 C 15,0 C 81 % 1018,5 hPa 0,0 l/m 0 min 0 min 179 W/m 16,1 km/h (3 Bft) 100,00 %
17.08.2021 12:26 16,6 C 16,1 C 15,0 C 81 % 1018,6 hPa 0,0 l/m 0 min 0 min 200 W/m 19,3 km/h (3 Bft) 100,00 %
17.08.2021 12:28 16,5 C 16,1 C 15,0 C 81 % 1018,6 hPa 0,0 l/m 0 min 0 min 199 W/m 19,3 km/h (3 Bft) 100,00 %
17.08.2021 12:30 16,6 C 16,7 C 15,0 C 82 % 1018,6 hPa 0,0 l/m 0 min 0 min 227 W/m 9,7 km/h (2 Bft) 100,00 %
17.08.2021 12:32 16,6 C 16,7 C 15,0 C 82 % 1018,6 hPa 0,0 l/m 0 min 0 min 227 W/m 22,5 km/h (4 Bft) 100,00 %
17.08.2021 12:34 16,6 C 16,7 C 15,0 C 82 % 1018,5 hPa 0,0 l/m 0 min 0 min 188 W/m 19,3 km/h (3 Bft) 100,00 %
17.08.2021 12:36 16,6 C 16,7 C 15,0 C 82 % 1018,6 hPa 0,0 l/m 0 min 0 min 182 W/m 35,4 km/h (5 Bft) 100,00 %
17.08.2021 12:38 16,6 C 16,7 C 15,0 C 82 % 1018,4 hPa 0,0 l/m 0 min 0 min 202 W/m 6,4 km/h (2 Bft) 100,00 %
17.08.2021 12:40 16,6 C 16,7 C 15,0 C 82 % 1018,4 hPa 0,0 l/m 0 min 0 min 193 W/m 9,7 km/h (2 Bft) 100,00 %
17.08.2021 12:42 16,6 C 16,7 C 15,0 C 81 % 1018,4 hPa 0,0 l/m 0 min 0 min 189 W/m 19,3 km/h (3 Bft) 97,92 %
17.08.2021 12:44 16,6 C 16,7 C 15,0 C 82 % 1018,3 hPa 0,0 l/m 0 min 0 min 203 W/m 16,1 km/h (3 Bft) 97,87 %
17.08.2021 12:46 16,6 C 16,7 C 15,0 C 81 % 1018,3 hPa 0,0 l/m 0 min 0 min 198 W/m 22,5 km/h (4 Bft) 97,87 %
17.08.2021 12:48 16,6 C 16,1 C 15,0 C 81 % 1018,3 hPa 0,0 l/m 0 min 0 min 180 W/m 12,9 km/h (3 Bft) 97,62 %
17.08.2021 12:50 16,5 C 16,1 C 15,0 C 81 % 1018,4 hPa 0,0 l/m 0 min 0 min 156 W/m 16,1 km/h (3 Bft) 96,00 %
17.08.2021 12:52 16,5 C 16,1 C 15,0 C 81 % 1018,5 hPa 0,0 l/m 0 min 0 min 148 W/m 19,3 km/h (3 Bft) 97,92 %
17.08.2021 12:54 16,5 C 16,1 C 15,0 C 81 % 1018,5 hPa 0,0 l/m 0 min 0 min 130 W/m 22,5 km/h (4 Bft) 97,87 %
17.08.2021 12:56 16,5 C 16,1 C 15,0 C 81 % 1018,4 hPa 0,0 l/m 0 min 0 min 130 W/m 16,1 km/h (3 Bft) 97,67 %
17.08.2021 12:58 16,5 C 16,1 C 15,0 C 81 % 1018,4 hPa 0,0 l/m 0 min 0 min 120 W/m 12,9 km/h (3 Bft) 97,96 %
17.08.2021 13:00 16,5 C 16,1 C 15,0 C 82 % 1018,4 hPa 0,0 l/m 0 min 0 min 136 W/m 12,9 km/h (3 Bft) 97,96 %
17.08.2021 13:02 16,5 C 16,1 C 15,0 C 81 % 1018,4 hPa 0,0 l/m 0 min 0 min 151 W/m 19,3 km/h (3 Bft) 97,87 %
17.08.2021 13:04 16,5 C 16,1 C 15,0 C 82 % 1018,4 hPa 0,0 l/m 0 min 0 min 145 W/m 16,1 km/h (3 Bft) 97,62 %
17.08.2021 13:06 16,4 C 16,1 C 15,0 C 81 % 1018,5 hPa 0,0 l/m 0 min 0 min 116 W/m 9,7 km/h (2 Bft) 96,00 %
17.08.2021 13:08 16,4 C 16,1 C 14,5 C 81 % 1018,5 hPa 0,0 l/m 0 min 0 min 93 W/m 16,1 km/h (3 Bft) 95,74 %
17.08.2021 13:10 16,4 C 16,1 C 14,5 C 81 % 1018,5 hPa 0,0 l/m 0 min 0 min 82 W/m 12,9 km/h (3 Bft) 95,65 %
17.08.2021 13:12 16,4 C 15,6 C 14,5 C 81 % 1018,4 hPa 0,0 l/m 0 min 0 min 77 W/m 12,9 km/h (3 Bft) 93,62 %
17.08.2021 13:14 16,4 C 15,6 C 14,5 C 81 % 1018,3 hPa 0,0 l/m 0 min 0 min 72 W/m 12,9 km/h (3 Bft) 95,92 %
17.08.2021 13:16 16,3 C 15,6 C 14,5 C 81 % 1018,3 hPa 0,0 l/m 0 min 0 min 70 W/m 6,4 km/h (2 Bft) 95,65 %
17.08.2021 13:18 16,3 C 15,6 C 14,5 C 81 % 1018,2 hPa 0,0 l/m 0 min 0 min 67 W/m 19,3 km/h (3 Bft) 97,87 %
17.08.2021 13:20 16,3 C 15,6 C 14,5 C 81 % 1018,2 hPa 0,0 l/m 0 min 0 min 64 W/m 12,9 km/h (3 Bft) 95,74 %
17.08.2021 13:22 16,3 C 15,6 C 14,5 C 81 % 1018,2 hPa 0,0 l/m 0 min 0 min 68 W/m 9,7 km/h (2 Bft) 95,74 %
17.08.2021 13:24 16,2 C 15,6 C 14,5 C 81 % 1018,1 hPa 0,0 l/m 0 min 0 min 69 W/m 12,9 km/h (3 Bft) 97,87 %
17.08.2021 13:26 16,1 C 15,6 C 14,5 C 81 % 1018,2 hPa 0,0 l/m 0 min 0 min 67 W/m 12,9 km/h (3 Bft) 97,87 %
17.08.2021 13:28 16,1 C 15,6 C 14,5 C 81 % 1018,1 hPa 0,0 l/m 0 min 0 min 68 W/m 12,9 km/h (3 Bft) 97,83 %
17.08.2021 13:30 16,1 C 15,6 C 14,5 C 81 % 1018,2 hPa 0,0 l/m 0 min 0 min 79 W/m 12,9 km/h (3 Bft) 95,74 %
17.08.2021 13:32 16,0 C 15,6 C 14,5 C 81 % 1018,2 hPa 0,0 l/m 0 min 0 min 90 W/m 12,9 km/h (3 Bft) 97,87 %
17.08.2021 13:34 16,0 C 15,6 C 14,5 C 81 % 1018,3 hPa 0,0 l/m 0 min 0 min 94 W/m 16,1 km/h (3 Bft) 97,87 %
17.08.2021 13:36 16,0 C 15,6 C 14,5 C 81 % 1018,3 hPa 0,0 l/m 0 min 0 min 109 W/m 16,1 km/h (3 Bft) 95,74 %
17.08.2021 13:38 16,0 C 15,6 C 14,5 C 81 % 1018,3 hPa 0,0 l/m 0 min 0 min 124 W/m 12,9 km/h (3 Bft) 97,67 %
17.08.2021 13:40 16,0 C 15,6 C 14,5 C 81 % 1018,3 hPa 0,0 l/m 0 min 0 min 130 W/m 12,9 km/h (3 Bft) 95,74 %
17.08.2021 13:42 16,0 C 15,6 C 14,5 C 81 % 1018,4 hPa 0,0 l/m 0 min 0 min 123 W/m 16,1 km/h (3 Bft) 97,87 %
17.08.2021 13:44 16,0 C 15,6 C 14,5 C 81 % 1018,4 hPa 0,0 l/m 0 min 0 min 105 W/m 19,3 km/h (3 Bft) 97,87 %
17.08.2021 13:46 16,0 C 15,6 C 13,9 C 81 % 1018,3 hPa 0,0 l/m 0 min 2 min 96 W/m 16,1 km/h (3 Bft) 97,83 %
17.08.2021 13:48 16,0 C 15,6 C 13,9 C 82 % 1018,3 hPa 0,0 l/m 0 min 2 min 95 W/m 16,1 km/h (3 Bft) 97,87 %
17.08.2021 13:50 16,0 C 15,6 C 13,9 C 82 % 1018,4 hPa 0,0 l/m 0 min 2 min 94 W/m 12,9 km/h (3 Bft) 97,87 %
17.08.2021 13:52 15,9 C 15,6 C 13,9 C 82 % 1018,4 hPa 0,0 l/m 0 min 2 min 87 W/m 16,1 km/h (3 Bft) 97,87 %
17.08.2021 13:54 15,9 C 15,0 C 13,9 C 82 % 1018,4 hPa 0,0 l/m 0 min 2 min 76 W/m 19,3 km/h (3 Bft) 97,87 %
17.08.2021 13:56 15,8 C 15,0 C 13,4 C 82 % 1018,4 hPa 0,0 l/m 0 min 2 min 69 W/m 9,7 km/h (2 Bft) 100,00 %
17.08.2021 13:58 15,8 C 15,0 C 13,4 C 83 % 1018,4 hPa 0,0 l/m 0 min 0 min 68 W/m 12,9 km/h (3 Bft) 100,00 %
17.08.2021 14:00 15,7 C 15,0 C 13,4 C 83 % 1018,3 hPa 0,0 l/m 0 min 0 min 72 W/m 12,9 km/h (3 Bft) 100,00 %
17.08.2021 14:02 15,6 C 15,0 C 13,4 C 83 % 1018,4 hPa 0,0 l/m 0 min 0 min 79 W/m 12,9 km/h (3 Bft) 100,00 %
17.08.2021 14:04 15,6 C 15,0 C 13,4 C 83 % 1018,3 hPa 0,0 l/m 0 min 0 min 81 W/m 16,1 km/h (3 Bft) 100,00 %
17.08.2021 14:06 15,6 C 15,0 C 13,4 C 83 % 1018,4 hPa 0,0 l/m 0 min 0 min 81 W/m 12,9 km/h (3 Bft) 100,00 %
17.08.2021 14:08 15,5 C 15,0 C 13,4 C 83 % 1018,4 hPa 0,0 l/m 0 min 0 min 79 W/m 16,1 km/h (3 Bft) 100,00 %
17.08.2021 14:10 15,5 C 15,0 C 13,4 C 83 % 1018,3 hPa 0,0 l/m 0 min 0 min 76 W/m 16,1 km/h (3 Bft) 100,00 %
17.08.2021 14:12 15,5 C 15,0 C 13,4 C 83 % 1018,3 hPa 0,0 l/m 0 min 0 min 74 W/m 16,1 km/h (3 Bft) 97,87 %
17.08.2021 14:14 15,5 C 15,0 C 13,4 C 83 % 1018,2 hPa 0,0 l/m 0 min 0 min 75 W/m 12,9 km/h (3 Bft) 100,00 %
17.08.2021 14:16 15,5 C 15,0 C 13,9 C 83 % 1018,3 hPa 0,0 l/m 0 min 0 min 86 W/m 16,1 km/h (3 Bft) 100,00 %
17.08.2021 14:18 15,5 C 15,0 C 13,9 C 83 % 1018,3 hPa 0,0 l/m 0 min 0 min 99 W/m 16,1 km/h (3 Bft) 100,00 %
17.08.2021 14:20 15,5 C 15,0 C 13,9 C 82 % 1018,4 hPa 0,0 l/m 0 min 0 min 109 W/m 16,1 km/h (3 Bft) 97,83 %
17.08.2021 14:22 15,5 C 15,0 C 13,9 C 82 % 1018,3 hPa 0,0 l/m 0 min 0 min 110 W/m 12,9 km/h (3 Bft) 97,87 %
17.08.2021 14:24 15,5 C 15,6 C 13,9 C 82 % 1018,3 hPa 0,0 l/m 0 min 0 min 105 W/m 6,4 km/h (2 Bft) 100,00 %
17.08.2021 14:26 15,6 C 15,6 C 13,9 C 83 % 1018,3 hPa 0,0 l/m 0 min 2 min 102 W/m 12,9 km/h (3 Bft) 100,00 %
17.08.2021 14:28 15,6 C 15,6 C 13,9 C 83 % 1018,2 hPa 0,0 l/m 0 min 2 min 106 W/m 12,9 km/h (3 Bft) 97,87 %
17.08.2021 14:30 15,6 C 15,0 C 13,4 C 83 % 1018,3 hPa 0,0 l/m 0 min 2 min 109 W/m 9,7 km/h (2 Bft) 95,74 %
17.08.2021 14:32 15,6 C 15,0 C 13,4 C 84 % 1018,2 hPa 0,0 l/m 0 min 2 min 114 W/m 9,7 km/h (2 Bft) 97,83 %
17.08.2021 14:34 15,6 C 15,0 C 13,4 C 84 % 1018,3 hPa 0,0 l/m 0 min 2 min 120 W/m 12,9 km/h (3 Bft) 97,87 %
17.08.2021 14:36 15,6 C 15,0 C 13,4 C 84 % 1018,3 hPa 0,0 l/m 0 min 2 min 122 W/m 12,9 km/h (3 Bft) 97,87 %
17.08.2021 14:38 15,6 C 15,0 C 13,4 C 84 % 1018,3 hPa 0,0 l/m 0 min 2 min 135 W/m 9,7 km/h (2 Bft) 100,00 %
17.08.2021 14:40 15,6 C 15,0 C 13,4 C 85 % 1018,2 hPa 0,0 l/m 0 min 2 min 148 W/m 19,3 km/h (3 Bft) 97,87 %
17.08.2021 14:42 15,6 C 15,0 C 13,4 C 84 % 1018,3 hPa 0,0 l/m 0 min 2 min 155 W/m 9,7 km/h (2 Bft) 54,55 %
17.08.2021 14:44 15,6 C 15,6 C 13,4 C 84 % 1018,3 hPa 0,0 l/m 0 min 2 min 146 W/m 9,7 km/h (2 Bft) 95,74 %
17.08.2021 14:46 15,6 C 15,0 C 12,8 C 84 % 1018,2 hPa 0,0 l/m 0 min 2 min 134 W/m 9,7 km/h (2 Bft) 93,62 %
17.08.2021 14:48 15,6 C 15,0 C 12,8 C 85 % 1018,2 hPa 0,0 l/m 0 min 2 min 136 W/m 6,4 km/h (2 Bft) 95,74 %
17.08.2021 14:50 15,6 C 15,0 C 12,8 C 85 % 1018,3 hPa 0,0 l/m 0 min 2 min 129 W/m 9,7 km/h (2 Bft) 95,74 %
17.08.2021 14:52 15,6 C 15,0 C 12,8 C 85 % 1018,3 hPa 0,0 l/m 0 min 2 min 118 W/m 9,7 km/h (2 Bft) 95,74 %
17.08.2021 14:54 15,5 C 15,0 C 12,8 C 85 % 1018,2 hPa 0,0 l/m 0 min 2 min 134 W/m 25,7 km/h (4 Bft) 97,83 %
17.08.2021 14:56 15,5 C 15,0 C 12,8 C 85 % 1018,3 hPa 0,0 l/m 0 min 2 min 152 W/m 6,4 km/h (2 Bft) 95,74 %
17.08.2021 14:58 15,5 C 15,0 C 12,8 C 85 % 1018,4 hPa 0,0 l/m 0 min 2 min 159 W/m 6,4 km/h (2 Bft) 95,74 %
17.08.2021 15:00 15,5 C 15,0 C 12,8 C 86 % 1018,3 hPa 0,0 l/m 0 min 2 min 157 W/m 12,9 km/h (3 Bft) 95,74 %
17.08.2021 15:02 15,5 C 15,0 C 12,8 C 86 % 1018,3 hPa 0,2 l/m 0 min 2 min 167 W/m 12,9 km/h (3 Bft) 93,62 %
17.08.2021 15:04 15,5 C 15,0 C 12,8 C 86 % 1018,3 hPa 0,0 l/m 0 min 2 min 176 W/m 9,7 km/h (2 Bft) 95,74 %
17.08.2021 15:06 15,5 C 15,0 C 12,8 C 86 % 1018,2 hPa 0,0 l/m 0 min 2 min 179 W/m 6,4 km/h (2 Bft) 93,48 %
17.08.2021 15:08 15,5 C 15,0 C 12,8 C 86 % 1018,3 hPa 0,0 l/m 0 min 2 min 176 W/m 12,9 km/h (3 Bft) 91,49 %
17.08.2021 15:10 15,5 C 15,6 C 12,8 C 86 % 1018,3 hPa 0,0 l/m 0 min 2 min 164 W/m 6,4 km/h (2 Bft) 95,74 %
17.08.2021 15:12 15,5 C 15,6 C 12,8 C 87 % 1018,3 hPa 0,0 l/m 0 min 2 min 175 W/m 6,4 km/h (2 Bft) 95,74 %
17.08.2021 15:14 15,5 C 15,0 C 12,8 C 87 % 1018,2 hPa 0,0 l/m 0 min 2 min 178 W/m 9,7 km/h (2 Bft) 95,74 %
17.08.2021 15:16 15,5 C 15,0 C 12,8 C 87 % 1018,2 hPa 0,0 l/m 0 min 2 min 174 W/m 6,4 km/h (2 Bft) 97,87 %
17.08.2021 15:18 15,5 C 15,0 C 12,8 C 87 % 1018,2 hPa 0,0 l/m 0 min 2 min 180 W/m 6,4 km/h (2 Bft) 97,83 %
17.08.2021 15:20 15,5 C 15,0 C 12,8 C 87 % 1018,2 hPa 0,0 l/m 0 min 2 min 202 W/m 19,3 km/h (3 Bft) 97,87 %
17.08.2021 15:22 15,5 C 15,6 C 12,8 C 87 % 1018,1 hPa 0,0 l/m 0 min 2 min 226 W/m 12,9 km/h (3 Bft) 97,87 %
17.08.2021 15:24 15,5 C 15,6 C 13,4 C 87 % 1018,0 hPa 0,0 l/m 0 min 2 min 248 W/m 6,4 km/h (2 Bft) 100,00 %
17.08.2021 15:26 15,6 C 15,6 C 13,4 C 88 % 1018,1 hPa 0,0 l/m 0 min 2 min 266 W/m 16,1 km/h (3 Bft) 100,00 %
17.08.2021 15:28 15,6 C 15,6 C 13,4 C 88 % 1018,0 hPa 0,0 l/m 0 min 2 min 248 W/m 16,1 km/h (3 Bft) 97,87 %
17.08.2021 15:30 15,6 C 15,6 C 13,4 C 88 % 1018,0 hPa 0,0 l/m 0 min 2 min 221 W/m 12,9 km/h (3 Bft) 100,00 %
17.08.2021 15:32 15,6 C 16,1 C 13,4 C 88 % 1018,0 hPa 0,0 l/m 0 min 2 min 218 W/m 6,4 km/h (2 Bft) 100,00 %
17.08.2021 15:34 15,7 C 15,6 C 13,4 C 88 % 1018,0 hPa 0,0 l/m 0 min 2 min 218 W/m 9,7 km/h (2 Bft) 100,00 %
17.08.2021 15:36 15,7 C 15,6 C 13,4 C 88 % 1018,0 hPa 0,0 l/m 0 min 2 min 218 W/m 9,7 km/h (2 Bft) 97,87 %
17.08.2021 15:38 15,7 C 15,6 C 13,4 C 88 % 1018,0 hPa 0,0 l/m 0 min 2 min 235 W/m 16,1 km/h (3 Bft) 100,00 %
17.08.2021 15:40 15,6 C 15,6 C 13,4 C 88 % 1018,0 hPa 0,0 l/m 0 min 2 min 252 W/m 19,3 km/h (3 Bft) 100,00 %
17.08.2021 15:42 15,6 C 15,6 C 13,4 C 88 % 1018,0 hPa 0,0 l/m 0 min 2 min 240 W/m 16,1 km/h (3 Bft) 100,00 %
17.08.2021 15:44 15,6 C 15,6 C 13,4 C 88 % 1018,0 hPa 0,2 l/m 0 min 2 min 202 W/m 12,9 km/h (3 Bft) 100,00 %
17.08.2021 15:46 15,6 C 15,0 C 12,8 C 88 % 1018,1 hPa 0,0 l/m 0 min 2 min 154 W/m 12,9 km/h (3 Bft) 100,00 %
17.08.2021 15:48 15,6 C 15,0 C 12,8 C 88 % 1018,2 hPa 0,0 l/m 0 min 2 min 123 W/m 12,9 km/h (3 Bft) 97,92 %
17.08.2021 15:50 15,5 C 15,0 C 12,8 C 88 % 1018,1 hPa 0,0 l/m 0 min 2 min 111 W/m 16,1 km/h (3 Bft) 97,83 %
17.08.2021 15:52 15,4 C 14,4 C 12,8 C 89 % 1018,1 hPa 0,0 l/m 0 min 2 min 92 W/m 16,1 km/h (3 Bft) 100,00 %
17.08.2021 15:54 15,3 C 13,9 C 12,3 C 89 % 1018,2 hPa 0,0 l/m 0 min 2 min 67 W/m 16,1 km/h (3 Bft) 97,87 %
17.08.2021 15:56 15,2 C 13,9 C 12,3 C 89 % 1018,2 hPa 0,2 l/m 0 min 2 min 61 W/m 12,9 km/h (3 Bft) 97,87 %
17.08.2021 15:58 15,1 C 13,3 C 12,3 C 89 % 1018,2 hPa 0,2 l/m 0 min 2 min 61 W/m 12,9 km/h (3 Bft) 93,62 %
17.08.2021 16:00 15,0 C 13,3 C 12,3 C 90 % 1018,2 hPa 0,0 l/m 0 min 2 min 79 W/m 6,4 km/h (2 Bft) 97,87 %
17.08.2021 16:02 14,9 C 13,3 C 12,3 C 90 % 1018,1 hPa 0,2 l/m 0 min 2 min 104 W/m 12,9 km/h (3 Bft) 97,83 %
17.08.2021 16:04 14,8 C 13,3 C 12,3 C 90 % 1018,1 hPa 0,2 l/m 0 min 2 min 123 W/m 16,1 km/h (3 Bft) 97,87 %
17.08.2021 16:06 14,7 C 13,3 C 12,3 C 90 % 1018,1 hPa 0,0 l/m 0 min 2 min 141 W/m 12,9 km/h (3 Bft) 97,87 %
17.08.2021 16:08 14,6 C 13,3 C 12,3 C 91 % 1018,1 hPa 0,0 l/m 0 min 2 min 161 W/m 12,9 km/h (3 Bft) 93,62 %
17.08.2021 16:10 14,6 C 13,3 C 12,3 C 91 % 1018,1 hPa 0,0 l/m 0 min 2 min 149 W/m 9,7 km/h (2 Bft) 97,67 %
17.08.2021 16:12 14,7 C 13,9 C 12,3 C 92 % 1018,2 hPa 0,0 l/m 0 min 2 min 134 W/m 6,4 km/h (2 Bft) 97,87 %
17.08.2021 16:14 14,8 C 13,9 C 12,3 C 92 % 1018,1 hPa 0,0 l/m 0 min 2 min 130 W/m 12,9 km/h (3 Bft) 97,87 %
17.08.2021 16:16 14,8 C 13,9 C 12,8 C 92 % 1018,1 hPa 0,0 l/m 0 min 0 min 148 W/m 3,2 km/h (1 Bft) 95,65 %
17.08.2021 16:18 14,8 C 13,9 C 12,8 C 92 % 1018,1 hPa 0,0 l/m 0 min 0 min 156 W/m 6,4 km/h (2 Bft) 95,74 %
17.08.2021 16:20 14,8 C 13,9 C 12,8 C 93 % 1018,2 hPa 0,0 l/m 0 min 0 min 141 W/m 16,1 km/h (3 Bft) 97,87 %
17.08.2021 16:22 14,8 C 13,9 C 12,3 C 93 % 1018,1 hPa 0,0 l/m 0 min 0 min 130 W/m 19,3 km/h (3 Bft) 97,87 %
17.08.2021 16:24 14,7 C 13,9 C 12,3 C 93 % 1018,0 hPa 0,0 l/m 0 min 0 min 128 W/m 12,9 km/h (3 Bft) 97,87 %
17.08.2021 16:26 14,6 C 13,9 C 12,3 C 92 % 1018,0 hPa 0,0 l/m 0 min 0 min 136 W/m 9,7 km/h (2 Bft) 97,87 %
17.08.2021 16:28 14,6 C 13,9 C 12,3 C 93 % 1018,0 hPa 0,0 l/m 0 min 0 min 132 W/m 25,7 km/h (4 Bft) 97,96 %
17.08.2021 16:30 14,5 C 13,9 C 12,3 C 92 % 1018,1 hPa 0,0 l/m 0 min 0 min 106 W/m 12,9 km/h (3 Bft) 97,87 %
17.08.2021 16:32 14,5 C 13,9 C 12,3 C 93 % 1018,1 hPa 0,0 l/m 0 min 0 min 87 W/m 9,7 km/h (2 Bft) 95,74 %
17.08.2021 16:34 14,5 C 13,9 C 12,3 C 93 % 1018,1 hPa 0,0 l/m 0 min 0 min 94 W/m 16,1 km/h (3 Bft) 97,87 %
17.08.2021 16:36 14,5 C 13,9 C 12,3 C 93 % 1018,1 hPa 0,0 l/m 0 min 0 min 98 W/m 12,9 km/h (3 Bft) 95,74 %
17.08.2021 16:38 14,4 C 13,9 C 12,3 C 93 % 1018,0 hPa 0,0 l/m 0 min 0 min 105 W/m 29,0 km/h (5 Bft) 95,74 %
17.08.2021 16:40 14,4 C 13,9 C 12,3 C 93 % 1018,1 hPa 0,0 l/m 0 min 0 min 110 W/m 16,1 km/h (3 Bft) 95,65 %
17.08.2021 16:42 14,4 C 13,9 C 12,3 C 93 % 1018,0 hPa 0,0 l/m 0 min 2 min 101 W/m 12,9 km/h (3 Bft) 95,74 %
17.08.2021 16:44 14,4 C 13,9 C 12,3 C 93 % 1018,1 hPa 0,0 l/m 0 min 2 min 103 W/m 16,1 km/h (3 Bft) 95,74 %
17.08.2021 16:46 14,4 C 13,9 C 12,3 C 93 % 1018,0 hPa 0,0 l/m 0 min 2 min 115 W/m 12,9 km/h (3 Bft) 91,49 %
17.08.2021 16:48 14,4 C 13,9 C 12,3 C 93 % 1018,0 hPa 0,0 l/m 0 min 2 min 114 W/m 12,9 km/h (3 Bft) 97,87 %
17.08.2021 16:50 14,4 C 13,9 C 12,3 C 93 % 1018,0 hPa 0,0 l/m 0 min 2 min 119 W/m 9,7 km/h (2 Bft) 97,87 %
17.08.2021 16:52 14,4 C 13,9 C 12,3 C 93 % 1018,0 hPa 0,0 l/m 0 min 2 min 97 W/m 12,9 km/h (3 Bft) 97,87 %
17.08.2021 16:54 14,4 C 13,9 C 12,3 C 93 % 1018,0 hPa 0,0 l/m 0 min 2 min 97 W/m 12,9 km/h (3 Bft) 97,87 %
17.08.2021 16:56 14,4 C 13,9 C 12,3 C 93 % 1018,1 hPa 0,0 l/m 0 min 2 min 123 W/m 16,1 km/h (3 Bft) 97,87 %
17.08.2021 16:58 14,4 C 13,9 C 12,3 C 93 % 1018,1 hPa 0,0 l/m 0 min 2 min 101 W/m 29,0 km/h (5 Bft) 97,87 %
17.08.2021 17:00 14,3 C 13,9 C 12,3 C 93 % 1018,1 hPa 0,0 l/m 0 min 2 min 80 W/m 12,9 km/h (3 Bft) 97,83 %
17.08.2021 17:02 14,3 C 13,9 C 12,3 C 93 % 1018,0 hPa 0,0 l/m 0 min 2 min 80 W/m 12,9 km/h (3 Bft) 95,74 %
17.08.2021 17:04 14,2 C 13,9 C 12,3 C 93 % 1018,2 hPa 0,0 l/m 0 min 2 min 73 W/m 16,1 km/h (3 Bft) 97,87 %
17.08.2021 17:06 14,2 C 13,9 C 12,3 C 93 % 1018,1 hPa 0,0 l/m 0 min 2 min 63 W/m 16,1 km/h (3 Bft) 97,87 %
17.08.2021 17:08 14,2 C 13,9 C 12,3 C 93 % 1018,0 hPa 0,2 l/m 0 min 2 min 68 W/m 12,9 km/h (3 Bft) 97,87 %
17.08.2021 17:10 14,2 C 13,3 C 12,3 C 93 % 1018,1 hPa 0,0 l/m 0 min 2 min 69 W/m 19,3 km/h (3 Bft) 97,87 %
17.08.2021 17:12 14,2 C 13,3 C 12,3 C 93 % 1018,0 hPa 0,0 l/m 0 min 2 min 61 W/m 9,7 km/h (2 Bft) 100,00 %
17.08.2021 17:14 14,2 C 13,3 C 12,3 C 93 % 1018,0 hPa 0,0 l/m 0 min 2 min 62 W/m 12,9 km/h (3 Bft) 100,00 %
17.08.2021 17:16 14,2 C 13,3 C 12,3 C 93 % 1018,0 hPa 0,0 l/m 0 min 2 min 69 W/m 16,1 km/h (3 Bft) 97,87 %
17.08.2021 17:18 14,2 C 13,3 C 12,3 C 93 % 1018,0 hPa 0,0 l/m 0 min 2 min 75 W/m 12,9 km/h (3 Bft) 100,00 %
17.08.2021 17:20 14,2 C 13,3 C 12,3 C 93 % 1018,0 hPa 0,0 l/m 0 min 2 min 63 W/m 12,9 km/h (3 Bft) 97,87 %
17.08.2021 17:22 14,2 C 13,3 C 12,3 C 94 % 1017,9 hPa 0,0 l/m 0 min 2 min 52 W/m 9,7 km/h (2 Bft) 97,87 %
17.08.2021 17:24 14,2 C 13,3 C 12,3 C 94 % 1017,8 hPa 0,0 l/m 0 min 2 min 60 W/m 12,9 km/h (3 Bft) 97,83 %
17.08.2021 17:26 14,2 C 13,3 C 12,3 C 94 % 1017,8 hPa 0,0 l/m 0 min 2 min 82 W/m 12,9 km/h (3 Bft) 97,87 %
17.08.2021 17:28 14,2 C 13,9 C 12,3 C 94 % 1017,7 hPa 0,2 l/m 0 min 2 min 101 W/m 12,9 km/h (3 Bft) 95,74 %
17.08.2021 17:30 14,2 C 13,3 C 12,3 C 94 % 1017,7 hPa 0,0 l/m 0 min 2 min 113 W/m 19,3 km/h (3 Bft) 97,87 %
17.08.2021 17:32 14,2 C 13,3 C 12,3 C 94 % 1017,8 hPa 0,0 l/m 0 min 2 min 101 W/m 16,1 km/h (3 Bft) 97,87 %
17.08.2021 17:34 14,2 C 13,3 C 12,3 C 94 % 1017,7 hPa 0,0 l/m 0 min 2 min 88 W/m 16,1 km/h (3 Bft) 97,87 %
17.08.2021 17:36 14,2 C 13,3 C 12,3 C 94 % 1017,7 hPa 0,0 l/m 0 min 2 min 81 W/m 29,0 km/h (5 Bft) 97,83 %
17.08.2021 17:38 14,1 C 13,3 C 12,3 C 94 % 1017,6 hPa 0,0 l/m 0 min 2 min 85 W/m 16,1 km/h (3 Bft) 97,87 %
17.08.2021 17:40 14,1 C 13,3 C 12,3 C 94 % 1017,6 hPa 0,0 l/m 0 min 2 min 81 W/m 6,4 km/h (2 Bft) 97,87 %
17.08.2021 17:42 14,1 C 13,3 C 12,3 C 94 % 1017,6 hPa 0,0 l/m 0 min 2 min 70 W/m 12,9 km/h (3 Bft) 97,87 %
17.08.2021 17:44 14,1 C 13,3 C 12,3 C 94 % 1017,6 hPa 0,0 l/m 0 min 2 min 63 W/m 3,2 km/h (1 Bft) 97,87 %
17.08.2021 17:46 14,1 C 13,3 C 12,3 C 94 % 1017,6 hPa 0,0 l/m 0 min 2 min 48 W/m 6,4 km/h (2 Bft) 95,74 %
17.08.2021 17:48 14,1 C 13,3 C 12,3 C 94 % 1017,6 hPa 0,0 l/m 0 min 2 min 43 W/m 16,1 km/h (3 Bft) 97,83 %
17.08.2021 17:50 14,1 C 13,3 C 12,3 C 94 % 1017,6 hPa 0,0 l/m 0 min 2 min 47 W/m 16,1 km/h (3 Bft) 97,87 %
17.08.2021 17:52 14,1 C 13,3 C 12,3 C 94 % 1017,6 hPa 0,0 l/m 0 min 2 min 43 W/m 16,1 km/h (3 Bft) 97,87 %
17.08.2021 17:54 14,0 C 13,3 C 12,3 C 94 % 1017,6 hPa 0,0 l/m 0 min 2 min 52 W/m 35,4 km/h (5 Bft) 97,87 %
17.08.2021 17:56 14,0 C 13,3 C 12,3 C 94 % 1017,5 hPa 0,0 l/m 0 min 2 min 47 W/m 19,3 km/h (3 Bft) 97,87 %
17.08.2021 17:58 13,9 C 13,3 C 12,3 C 95 % 1017,5 hPa 0,0 l/m 0 min 2 min 38 W/m 16,1 km/h (3 Bft) 97,87 %
17.08.2021 18:00 13,9 C 13,3 C 12,3 C 95 % 1017,6 hPa 0,0 l/m 0 min 2 min 31 W/m 12,9 km/h (3 Bft) 97,83 %
17.08.2021 18:02 13,9 C 13,3 C 12,3 C 95 % 1017,6 hPa 0,0 l/m 0 min 2 min 22 W/m 6,4 km/h (2 Bft) 97,87 %
17.08.2021 18:04 13,9 C 13,3 C 12,3 C 95 % 1017,6 hPa 0,0 l/m 0 min 0 min 19 W/m 6,4 km/h (2 Bft) 97,87 %
17.08.2021 18:08 13,9 C 13,3 C 12,3 C 95 % 1017,5 hPa 0,0 l/m 0 min 0 min 27 W/m 16,1 km/h (3 Bft) 96,81 %
17.08.2021 18:10 13,9 C 13,3 C 12,3 C 95 % 1017,4 hPa 0,0 l/m 0 min 0 min 39 W/m 16,1 km/h (3 Bft) 100,00 %
17.08.2021 18:12 13,9 C 13,3 C 12,3 C 95 % 1017,4 hPa 0,0 l/m 0 min 0 min 41 W/m 19,3 km/h (3 Bft) 100,00 %
17.08.2021 18:14 13,9 C 13,3 C 12,3 C 95 % 1017,4 hPa 0,0 l/m 0 min 0 min 30 W/m 12,9 km/h (3 Bft) 100,00 %
17.08.2021 18:16 13,9 C 13,3 C 12,3 C 95 % 1017,4 hPa 0,0 l/m 0 min 0 min 32 W/m 16,1 km/h (3 Bft) 97,87 %
17.08.2021 18:18 13,9 C 13,3 C 12,3 C 95 % 1017,3 hPa 0,0 l/m 0 min 0 min 32 W/m 9,7 km/h (2 Bft) 100,00 %
17.08.2021 18:20 13,9 C 13,3 C 12,3 C 95 % 1017,3 hPa 0,0 l/m 0 min 0 min 34 W/m 9,7 km/h (2 Bft) 55,56 %
17.08.2021 18:22 13,9 C 13,3 C 12,3 C 95 % 1017,3 hPa 0,0 l/m 0 min 0 min 35 W/m 12,9 km/h (3 Bft) 100,00 %
17.08.2021 18:24 13,9 C 13,3 C 12,3 C 95 % 1017,3 hPa 0,0 l/m 0 min 0 min 37 W/m 25,7 km/h (4 Bft) 100,00 %
17.08.2021 18:26 13,8 C 13,3 C 12,3 C 95 % 1017,3 hPa 0,0 l/m 0 min 0 min 39 W/m 12,9 km/h (3 Bft) 97,87 %
17.08.2021 18:28 13,8 C 13,3 C 12,3 C 95 % 1017,2 hPa 0,0 l/m 0 min 0 min 47 W/m 12,9 km/h (3 Bft) 100,00 %
17.08.2021 18:30 13,8 C 13,3 C 12,3 C 95 % 1017,2 hPa 0,0 l/m 0 min 0 min 49 W/m 12,9 km/h (3 Bft) 97,87 %
17.08.2021 18:32 13,9 C 13,3 C 12,3 C 95 % 1017,2 hPa 0,0 l/m 0 min 0 min 42 W/m 19,3 km/h (3 Bft) 95,74 %
17.08.2021 18:34 13,9 C 13,3 C 12,3 C 95 % 1017,2 hPa 0,0 l/m 0 min 0 min 42 W/m 6,4 km/h (2 Bft) 95,65 %
17.08.2021 18:36 13,9 C 13,3 C 12,3 C 95 % 1017,1 hPa 0,0 l/m 0 min 0 min 36 W/m 16,1 km/h (3 Bft) 97,62 %
17.08.2021 18:38 13,9 C 13,3 C 12,3 C 95 % 1017,1 hPa 0,0 l/m 0 min 0 min 35 W/m 6,4 km/h (2 Bft) 97,83 %
17.08.2021 18:40 13,9 C 13,3 C 12,3 C 95 % 1017,1 hPa 0,0 l/m 0 min 0 min 34 W/m 12,9 km/h (3 Bft) 97,87 %
17.08.2021 18:42 13,9 C 13,3 C 12,3 C 95 % 1017,1 hPa 0,0 l/m 0 min 0 min 31 W/m 12,9 km/h (3 Bft) 97,87 %
17.08.2021 18:44 13,9 C 13,3 C 12,3 C 95 % 1017,1 hPa 0,0 l/m 0 min 0 min 31 W/m 12,9 km/h (3 Bft) 97,87 %
17.08.2021 18:46 13,9 C 13,3 C 12,3 C 95 % 1017,0 hPa 0,0 l/m 0 min 0 min 32 W/m 9,7 km/h (2 Bft) 95,74 %
17.08.2021 18:48 13,9 C 13,3 C 12,3 C 95 % 1017,0 hPa 0,0 l/m 0 min 0 min 30 W/m 12,9 km/h (3 Bft) 97,87 %
17.08.2021 18:50 13,9 C 13,3 C 12,3 C 95 % 1016,9 hPa 0,0 l/m 0 min 0 min 32 W/m 16,1 km/h (3 Bft) 97,83 %
17.08.2021 18:52 13,9 C 13,3 C 12,3 C 95 % 1016,9 hPa 0,0 l/m 0 min 0 min 41 W/m 19,3 km/h (3 Bft) 95,74 %
17.08.2021 18:54 13,9 C 13,3 C 12,3 C 95 % 1016,9 hPa 0,0 l/m 0 min 0 min 52 W/m 12,9 km/h (3 Bft) 97,87 %
17.08.2021 18:56 13,9 C 13,3 C 12,3 C 95 % 1016,9 hPa 0,0 l/m 0 min 0 min 53 W/m 12,9 km/h (3 Bft) 95,74 %
17.08.2021 18:58 14,0 C 13,3 C 12,3 C 96 % 1016,9 hPa 0,0 l/m 0 min 0 min 50 W/m 16,1 km/h (3 Bft) 95,74 %
17.08.2021 19:00 14,0 C 13,3 C 12,8 C 96 % 1016,8 hPa 0,0 l/m 0 min 0 min 36 W/m 12,9 km/h (3 Bft) 95,74 %
17.08.2021 19:02 14,0 C 13,3 C 12,8 C 96 % 1016,8 hPa 0,0 l/m 0 min 0 min 40 W/m 12,9 km/h (3 Bft) 95,92 %
17.08.2021 19:04 14,0 C 13,3 C 12,8 C 96 % 1016,8 hPa 0,0 l/m 0 min 2 min 49 W/m 12,9 km/h (3 Bft) 95,74 %
17.08.2021 19:06 14,0 C 13,3 C 12,8 C 96 % 1016,8 hPa 0,0 l/m 0 min 2 min 50 W/m 9,7 km/h (2 Bft) 97,87 %
17.08.2021 19:08 14,0 C 13,3 C 12,8 C 96 % 1016,8 hPa 0,0 l/m 0 min 2 min 39 W/m 12,9 km/h (3 Bft) 97,87 %
17.08.2021 19:10 14,0 C 13,3 C 12,8 C 96 % 1016,8 hPa 0,0 l/m 0 min 0 min 39 W/m 12,9 km/h (3 Bft) 95,74 %
17.08.2021 19:12 14,1 C 13,3 C 12,8 C 96 % 1016,8 hPa 0,0 l/m 0 min 0 min 35 W/m 12,9 km/h (3 Bft) 93,48 %
17.08.2021 19:14 14,0 C 13,3 C 12,3 C 96 % 1016,8 hPa 0,0 l/m 0 min 0 min 33 W/m 41,8 km/h (6 Bft) 97,87 %
17.08.2021 19:16 14,0 C 13,3 C 12,3 C 96 % 1016,8 hPa 0,0 l/m 0 min 2 min 30 W/m 16,1 km/h (3 Bft) 97,87 %
17.08.2021 19:18 14,0 C 13,3 C 12,3 C 96 % 1016,8 hPa 0,0 l/m 0 min 2 min 26 W/m 12,9 km/h (3 Bft) 97,87 %
17.08.2021 19:20 14,0 C 13,3 C 12,3 C 96 % 1016,8 hPa 0,0 l/m 0 min 2 min 23 W/m 12,9 km/h (3 Bft) 97,87 %
17.08.2021 19:22 14,0 C 13,3 C 12,3 C 96 % 1016,7 hPa 0,0 l/m 0 min 0 min 22 W/m 16,1 km/h (3 Bft) 97,87 %
17.08.2021 19:24 14,0 C 13,3 C 12,3 C 96 % 1016,7 hPa 0,0 l/m 0 min 0 min 23 W/m 12,9 km/h (3 Bft) 97,83 %
17.08.2021 19:26 14,0 C 13,3 C 12,3 C 96 % 1016,7 hPa 0,0 l/m 0 min 0 min 20 W/m 12,9 km/h (3 Bft) 97,87 %
17.08.2021 19:28 14,0 C 13,3 C 12,3 C 96 % 1016,7 hPa 0,0 l/m 0 min 0 min 18 W/m 12,9 km/h (3 Bft) 95,74 %
17.08.2021 19:30 14,0 C 13,3 C 12,3 C 96 % 1016,7 hPa 0,0 l/m 0 min 0 min 20 W/m 12,9 km/h (3 Bft) 97,87 %
17.08.2021 19:32 14,0 C 13,3 C 12,3 C 96 % 1016,7 hPa 0,0 l/m 0 min 0 min 19 W/m 9,7 km/h (2 Bft) 97,87 %
17.08.2021 19:34 14,0 C 13,3 C 12,3 C 96 % 1016,6 hPa 0,0 l/m 0 min 0 min 18 W/m 16,1 km/h (3 Bft) 97,87 %
17.08.2021 19:36 14,0 C 13,3 C 12,3 C 96 % 1016,6 hPa 0,0 l/m 0 min 0 min 16 W/m 9,7 km/h (2 Bft) 97,83 %
17.08.2021 19:38 14,0 C 13,3 C 12,3 C 96 % 1016,6 hPa 0,0 l/m 0 min 0 min 14 W/m 12,9 km/h (3 Bft) 97,87 %
17.08.2021 19:40 14,0 C 13,3 C 12,3 C 96 % 1016,6 hPa 0,0 l/m 0 min 0 min 14 W/m 12,9 km/h (3 Bft) 95,74 %
17.08.2021 19:42 14,0 C 13,3 C 12,3 C 96 % 1016,6 hPa 0,0 l/m 0 min 0 min 13 W/m 25,7 km/h (4 Bft) 97,87 %
17.08.2021 19:44 14,0 C 13,3 C 12,8 C 96 % 1016,6 hPa 0,0 l/m 0 min 0 min 12 W/m 16,1 km/h (3 Bft) 95,74 %
17.08.2021 19:46 14,0 C 13,3 C 12,8 C 95 % 1016,6 hPa 0,0 l/m 0 min 0 min 11 W/m 9,7 km/h (2 Bft) 100,00 %
17.08.2021 19:48 14,0 C 13,3 C 12,3 C 96 % 1016,6 hPa 0,0 l/m 0 min 0 min 11 W/m 6,4 km/h (2 Bft) 100,00 %
17.08.2021 19:50 14,0 C 13,3 C 12,3 C 96 % 1016,6 hPa 0,0 l/m 0 min 0 min 9 W/m 9,7 km/h (2 Bft) 100,00 %
17.08.2021 19:52 14,0 C 13,3 C 12,3 C 96 % 1016,6 hPa 0,2 l/m 0 min 0 min 9 W/m 12,9 km/h (3 Bft) 97,87 %
17.08.2021 19:54 14,0 C 13,3 C 12,3 C 96 % 1016,6 hPa 0,0 l/m 0 min 0 min 8 W/m 12,9 km/h (3 Bft) 97,87 %
17.08.2021 19:56 14,0 C 13,3 C 12,3 C 96 % 1016,7 hPa 0,0 l/m 0 min 0 min 7 W/m 12,9 km/h (3 Bft) 100,00 %
17.08.2021 19:58 14,0 C 13,3 C 12,8 C 96 % 1016,6 hPa 0,0 l/m 0 min 0 min 6 W/m 12,9 km/h (3 Bft) 100,00 %
17.08.2021 20:00 14,0 C 13,3 C 12,3 C 96 % 1016,6 hPa 0,0 l/m 0 min 0 min 5 W/m 9,7 km/h (2 Bft) 100,00 %
17.08.2021 20:02 14,0 C 13,3 C 12,3 C 96 % 1016,6 hPa 0,0 l/m 0 min 0 min 6 W/m 12,9 km/h (3 Bft) 95,74 %
17.08.2021 20:04 14,0 C 13,3 C 12,8 C 96 % 1016,6 hPa 0,0 l/m 0 min 0 min 7 W/m 6,4 km/h (2 Bft) 97,87 %
17.08.2021 20:06 14,0 C 13,3 C 12,8 C 96 % 1016,6 hPa 0,0 l/m 0 min 0 min 7 W/m 16,1 km/h (3 Bft) 97,87 %
17.08.2021 20:08 14,0 C 13,3 C 12,8 C 96 % 1016,5 hPa 0,0 l/m 0 min 0 min 7 W/m 16,1 km/h (3 Bft) 95,74 %
17.08.2021 20:10 14,0 C 13,3 C 12,8 C 96 % 1016,5 hPa 0,0 l/m 0 min 0 min 7 W/m 6,4 km/h (2 Bft) 97,83 %
17.08.2021 20:12 14,0 C 13,3 C 12,8 C 96 % 1016,5 hPa 0,0 l/m 0 min 0 min 7 W/m 9,7 km/h (2 Bft) 97,87 %
17.08.2021 20:14 14,0 C 13,3 C 12,8 C 96 % 1016,5 hPa 0,0 l/m 0 min 0 min 7 W/m 6,4 km/h (2 Bft) 97,87 %
17.08.2021 20:16 14,0 C 13,3 C 12,8 C 96 % 1016,4 hPa 0,0 l/m 0 min 0 min 6 W/m 9,7 km/h (2 Bft) 95,74 %
17.08.2021 20:18 14,0 C 13,3 C 12,8 C 96 % 1016,4 hPa 0,0 l/m 0 min 0 min 5 W/m 19,3 km/h (3 Bft) 97,87 %
17.08.2021 20:20 14,0 C 13,3 C 12,8 C 96 % 1016,4 hPa 0,0 l/m 0 min 0 min 2 W/m 19,3 km/h (3 Bft) 95,74 %
17.08.2021 20:22 14,0 C 13,3 C 12,8 C 96 % 1016,4 hPa 0,0 l/m 0 min 0 min 0 W/m 12,9 km/h (3 Bft) 95,65 %
17.08.2021 20:24 14,0 C 13,3 C 12,8 C 96 % 1016,4 hPa 0,0 l/m 0 min 0 min 0 W/m 6,4 km/h (2 Bft) 95,74 %
17.08.2021 20:26 14,0 C 13,3 C 12,8 C 96 % 1016,4 hPa 0,0 l/m 0 min 0 min 0 W/m 9,7 km/h (2 Bft) 95,74 %
17.08.2021 20:28 14,0 C 13,3 C 12,8 C 96 % 1016,3 hPa 0,0 l/m 0 min 0 min 0 W/m 12,9 km/h (3 Bft) 93,62 %
17.08.2021 20:30 14,0 C 13,3 C 12,8 C 96 % 1016,3 hPa 0,0 l/m 0 min 2 min 0 W/m 6,4 km/h (2 Bft) 95,74 %
17.08.2021 20:32 14,0 C 13,3 C 12,8 C 96 % 1016,4 hPa 0,0 l/m 0 min 0 min 0 W/m 6,4 km/h (2 Bft) 95,74 %
17.08.2021 20:34 14,0 C 13,3 C 12,8 C 96 % 1016,4 hPa 0,0 l/m 0 min 0 min 0 W/m 16,1 km/h (3 Bft) 93,48 %
17.08.2021 20:36 14,0 C 13,3 C 12,8 C 96 % 1016,4 hPa 0,0 l/m 0 min 0 min 0 W/m 6,4 km/h (2 Bft) 95,74 %
17.08.2021 20:38 14,0 C 13,3 C 12,8 C 96 % 1016,4 hPa 0,0 l/m 0 min 0 min 0 W/m 16,1 km/h (3 Bft) 95,74 %
17.08.2021 20:40 14,0 C 13,3 C 12,8 C 96 % 1016,4 hPa 0,0 l/m 0 min 0 min 0 W/m 6,4 km/h (2 Bft) 95,74 %
17.08.2021 20:42 14,0 C 13,3 C 12,8 C 96 % 1016,4 hPa 0,0 l/m 0 min 0 min 0 W/m 12,9 km/h (3 Bft) 95,74 %
17.08.2021 20:44 14,0 C 13,3 C 12,8 C 96 % 1016,4 hPa 0,0 l/m 0 min 0 min 0 W/m 16,1 km/h (3 Bft) 95,74 %
17.08.2021 20:46 14,0 C 13,3 C 12,8 C 96 % 1016,4 hPa 0,0 l/m 0 min 0 min 0 W/m 9,7 km/h (2 Bft) 95,83 %
17.08.2021 20:48 14,0 C 13,3 C 12,8 C 96 % 1016,4 hPa 0,0 l/m 0 min 0 min 0 W/m 9,7 km/h (2 Bft) 95,74 %
17.08.2021 20:50 14,1 C 13,3 C 12,8 C 96 % 1016,4 hPa 0,0 l/m 0 min 0 min 0 W/m 12,9 km/h (3 Bft) 95,74 %
17.08.2021 20:52 14,2 C 13,9 C 12,8 C 96 % 1016,4 hPa 0,0 l/m 0 min 0 min 0 W/m 12,9 km/h (3 Bft) 95,74 %
17.08.2021 20:54 14,2 C 13,9 C 12,8 C 96 % 1016,5 hPa 0,0 l/m 0 min 0 min 0 W/m 6,4 km/h (2 Bft) 93,62 %
17.08.2021 20:56 14,2 C 13,9 C 12,8 C 96 % 1016,5 hPa 0,0 l/m 0 min 0 min 0 W/m 6,4 km/h (2 Bft) 100,00 %
17.08.2021 20:58 14,2 C 13,9 C 12,8 C 96 % 1016,5 hPa 0,0 l/m 0 min 0 min 0 W/m 12,9 km/h (3 Bft) 100,00 %
17.08.2021 21:00 14,2 C 13,9 C 12,8 C 96 % 1016,5 hPa 0,0 l/m 0 min 0 min 0 W/m 9,7 km/h (2 Bft) 97,87 %
17.08.2021 21:02 14,2 C 13,9 C 12,8 C 96 % 1016,5 hPa 0,0 l/m 0 min 0 min 0 W/m 6,4 km/h (2 Bft) 100,00 %
17.08.2021 21:04 14,2 C 13,9 C 12,8 C 96 % 1016,5 hPa 0,0 l/m 0 min 0 min 0 W/m 16,1 km/h (3 Bft) 100,00 %
17.08.2021 21:06 14,2 C 13,9 C 12,8 C 96 % 1016,5 hPa 0,0 l/m 0 min 0 min 0 W/m 12,9 km/h (3 Bft) 100,00 %
17.08.2021 21:08 14,2 C 13,9 C 12,8 C 96 % 1016,5 hPa 0,0 l/m 0 min 0 min 0 W/m 6,4 km/h (2 Bft) 100,00 %
17.08.2021 21:10 14,2 C 13,9 C 12,8 C 96 % 1016,5 hPa 0,0 l/m 0 min 0 min 0 W/m 12,9 km/h (3 Bft) 100,00 %
17.08.2021 21:12 14,2 C 13,9 C 12,8 C 96 % 1016,5 hPa 0,0 l/m 0 min 0 min 0 W/m 6,4 km/h (2 Bft) 100,00 %
17.08.2021 21:14 14,2 C 13,9 C 12,8 C 96 % 1016,5 hPa 0,0 l/m 0 min 0 min 0 W/m 12,9 km/h (3 Bft) 100,00 %
17.08.2021 21:16 14,2 C 13,9 C 12,8 C 96 % 1016,5 hPa 0,0 l/m 0 min 0 min 0 W/m 6,4 km/h (2 Bft) 100,00 %
17.08.2021 21:18 14,2 C 13,9 C 12,8 C 96 % 1016,5 hPa 0,0 l/m 0 min 0 min 0 W/m 6,4 km/h (2 Bft) 100,00 %
17.08.2021 21:20 14,2 C 13,9 C 12,8 C 96 % 1016,5 hPa 0,0 l/m 0 min 2 min 0 W/m 12,9 km/h (3 Bft) 100,00 %
17.08.2021 21:22 14,2 C 13,9 C 12,8 C 97 % 1016,5 hPa 0,0 l/m 0 min 0 min 0 W/m 3,2 km/h (1 Bft) 100,00 %
17.08.2021 21:24 14,2 C 13,9 C 12,8 C 97 % 1016,5 hPa 0,0 l/m 0 min 0 min 0 W/m 19,3 km/h (3 Bft) 100,00 %
17.08.2021 21:26 14,2 C 13,9 C 12,8 C 96 % 1016,5 hPa 0,0 l/m 0 min 0 min 0 W/m 6,4 km/h (2 Bft) 100,00 %
17.08.2021 21:28 14,2 C 13,9 C 12,8 C 96 % 1016,5 hPa 0,0 l/m 0 min 0 min 0 W/m 12,9 km/h (3 Bft) 100,00 %
17.08.2021 21:30 14,2 C 13,9 C 12,8 C 96 % 1016,5 hPa 0,0 l/m 0 min 2 min 0 W/m 6,4 km/h (2 Bft) 100,00 %
17.08.2021 21:32 14,2 C 13,9 C 12,8 C 96 % 1016,4 hPa 0,0 l/m 0 min 0 min 0 W/m 3,2 km/h (1 Bft) 100,00 %
17.08.2021 21:34 14,2 C 13,9 C 12,8 C 97 % 1016,5 hPa 0,0 l/m 0 min 0 min 0 W/m 9,7 km/h (2 Bft) 100,00 %
17.08.2021 21:36 14,3 C 13,9 C 12,8 C 97 % 1016,5 hPa 0,0 l/m 0 min 0 min 0 W/m 3,2 km/h (1 Bft) 100,00 %
17.08.2021 21:38 14,3 C 13,9 C 12,8 C 96 % 1016,4 hPa 0,0 l/m 0 min 0 min 0 W/m 9,7 km/h (2 Bft) 100,00 %
17.08.2021 21:40 14,3 C 13,9 C 12,8 C 96 % 1016,4 hPa 0,0 l/m 0 min 0 min 0 W/m 12,9 km/h (3 Bft) 100,00 %
17.08.2021 21:42 14,3 C 13,9 C 12,8 C 96 % 1016,4 hPa 0,0 l/m 0 min 0 min 0 W/m 9,7 km/h (2 Bft) 100,00 %
17.08.2021 21:44 14,3 C 13,9 C 12,8 C 97 % 1016,5 hPa 0,0 l/m 0 min 0 min 0 W/m 9,7 km/h (2 Bft) 100,00 %
17.08.2021 21:46 14,3 C 13,9 C 12,8 C 96 % 1016,5 hPa 0,0 l/m 0 min 0 min 0 W/m 6,4 km/h (2 Bft) 100,00 %
17.08.2021 21:48 14,3 C 13,9 C 12,8 C 96 % 1016,5 hPa 0,0 l/m 0 min 0 min 0 W/m 16,1 km/h (3 Bft) 97,87 %
17.08.2021 21:50 14,3 C 13,9 C 13,4 C 96 % 1016,5 hPa 0,0 l/m 0 min 0 min 0 W/m 6,4 km/h (2 Bft) 95,74 %
17.08.2021 21:52 14,3 C 13,9 C 13,4 C 97 % 1016,5 hPa 0,0 l/m 0 min 0 min 0 W/m 9,7 km/h (2 Bft) 100,00 %
17.08.2021 21:54 14,3 C 13,9 C 12,8 C 96 % 1016,5 hPa 0,0 l/m 0 min 0 min 0 W/m 6,4 km/h (2 Bft) 97,87 %
17.08.2021 21:56 14,3 C 13,9 C 12,8 C 97 % 1016,5 hPa 0,0 l/m 0 min 0 min 0 W/m 6,4 km/h (2 Bft) 97,83 %
17.08.2021 21:58 14,3 C 13,9 C 13,4 C 97 % 1016,6 hPa 0,0 l/m 0 min 0 min 0 W/m 16,1 km/h (3 Bft) 97,87 %
17.08.2021 22:00 14,3 C 13,9 C 13,4 C 96 % 1016,5 hPa 0,0 l/m 0 min 0 min 0 W/m 3,2 km/h (1 Bft) 97,87 %
17.08.2021 22:02 14,4 C 13,9 C 13,4 C 96 % 1016,6 hPa 0,0 l/m 0 min 0 min 0 W/m 6,4 km/h (2 Bft) 93,62 %
17.08.2021 22:04 14,4 C 13,9 C 13,4 C 97 % 1016,6 hPa 0,0 l/m 0 min 0 min 0 W/m 6,4 km/h (2 Bft) 97,87 %
17.08.2021 22:06 14,3 C 13,9 C 13,4 C 97 % 1016,6 hPa 0,0 l/m 0 min 0 min 0 W/m 9,7 km/h (2 Bft) 97,83 %
17.08.2021 22:08 14,4 C 13,9 C 13,4 C 97 % 1016,6 hPa 0,0 l/m 0 min 0 min 0 W/m 3,2 km/h (1 Bft) 97,87 %
17.08.2021 22:10 14,4 C 13,9 C 13,4 C 97 % 1016,5 hPa 0,0 l/m 0 min 0 min 0 W/m 3,2 km/h (1 Bft) 97,87 %
17.08.2021 22:12 14,4 C 13,9 C 13,4 C 97 % 1016,6 hPa 0,0 l/m 0 min 0 min 0 W/m 6,4 km/h (2 Bft) 95,74 %
17.08.2021 22:14 14,4 C 13,9 C 13,4 C 97 % 1016,6 hPa 0,0 l/m 0 min 0 min 0 W/m 9,7 km/h (2 Bft) 95,74 %
17.08.2021 22:16 14,4 C 13,9 C 13,4 C 97 % 1016,5 hPa 0,0 l/m 0 min 0 min 0 W/m 6,4 km/h (2 Bft) 97,87 %
17.08.2021 22:18 14,4 C 13,9 C 13,4 C 97 % 1016,5 hPa 0,0 l/m 0 min 0 min 0 W/m 6,4 km/h (2 Bft) 95,65 %
17.08.2021 22:20 14,4 C 13,9 C 13,4 C 97 % 1016,6 hPa 0,0 l/m 0 min 0 min 0 W/m 9,7 km/h (2 Bft) 93,62 %
17.08.2021 22:22 14,4 C 13,9 C 13,4 C 97 % 1016,6 hPa 0,0 l/m 0 min 0 min 0 W/m 6,4 km/h (2 Bft) 95,74 %
17.08.2021 22:24 14,4 C 13,9 C 13,4 C 97 % 1016,5 hPa 0,0 l/m 0 min 0 min 0 W/m 12,9 km/h (3 Bft) 95,74 %
17.08.2021 22:26 14,4 C 13,9 C 13,4 C 97 % 1016,5 hPa 0,0 l/m 0 min 0 min 0 W/m 6,4 km/h (2 Bft) 95,74 %
17.08.2021 22:28 14,5 C 13,9 C 13,4 C 97 % 1016,6 hPa 0,0 l/m 0 min 0 min 0 W/m 6,4 km/h (2 Bft) 93,62 %
17.08.2021 22:30 14,4 C 13,9 C 13,4 C 97 % 1016,6 hPa 0,0 l/m 0 min 0 min 0 W/m 12,9 km/h (3 Bft) 95,65 %
17.08.2021 22:32 14,4 C 13,9 C 13,4 C 97 % 1016,6 hPa 0,0 l/m 0 min 0 min 0 W/m 6,4 km/h (2 Bft) 95,74 %
17.08.2021 22:34 14,4 C 13,9 C 13,4 C 97 % 1016,6 hPa 0,0 l/m 0 min 0 min 0 W/m 12,9 km/h (3 Bft) 95,74 %
17.08.2021 22:36 14,4 C 13,9 C 13,4 C 97 % 1016,5 hPa 0,0 l/m 0 min 0 min 0 W/m 16,1 km/h (3 Bft) 95,74 %
17.08.2021 22:38 14,4 C 13,9 C 13,4 C 97 % 1016,5 hPa 0,0 l/m 0 min 0 min 0 W/m 3,2 km/h (1 Bft) 93,62 %
17.08.2021 22:40 14,5 C 13,9 C 13,4 C 97 % 1016,5 hPa 0,0 l/m 0 min 0 min 0 W/m 3,2 km/h (1 Bft) 93,62 %
17.08.2021 22:42 14,5 C 13,9 C 13,4 C 97 % 1016,5 hPa 0,0 l/m 0 min 0 min 0 W/m 6,4 km/h (2 Bft) 95,65 %
17.08.2021 22:44 14,5 C 13,9 C 13,4 C 97 % 1016,5 hPa 0,0 l/m 0 min 0 min 0 W/m 12,9 km/h (3 Bft) 95,74 %
17.08.2021 22:46 14,5 C 13,9 C 13,4 C 97 % 1016,5 hPa 0,0 l/m 0 min 0 min 0 W/m 6,4 km/h (2 Bft) 95,74 %
17.08.2021 22:48 14,5 C 13,9 C 13,4 C 97 % 1016,5 hPa 0,0 l/m 0 min 0 min 0 W/m 3,2 km/h (1 Bft) 97,87 %
17.08.2021 22:50 14,5 C 13,9 C 13,4 C 97 % 1016,4 hPa 0,0 l/m 0 min 0 min 0 W/m 9,7 km/h (2 Bft) 100,00 %
17.08.2021 22:52 14,5 C 13,9 C 13,4 C 97 % 1016,5 hPa 0,0 l/m 0 min 0 min 0 W/m 16,1 km/h (3 Bft) 97,87 %
17.08.2021 22:54 14,5 C 13,9 C 13,4 C 97 % 1016,5 hPa 0,0 l/m 0 min 0 min 0 W/m 6,4 km/h (2 Bft) 100,00 %
17.08.2021 22:56 14,5 C 13,9 C 13,4 C 97 % 1016,4 hPa 0,0 l/m 0 min 0 min 0 W/m 6,4 km/h (2 Bft) 100,00 %
17.08.2021 22:58 14,5 C 13,9 C 13,4 C 97 % 1016,4 hPa 0,0 l/m 0 min 0 min 0 W/m 6,4 km/h (2 Bft) 97,87 %
17.08.2021 23:00 14,5 C 13,9 C 13,4 C 97 % 1016,4 hPa 0,0 l/m 0 min 0 min 0 W/m 12,9 km/h (3 Bft) 95,74 %
17.08.2021 23:02 14,5 C 13,9 C 13,4 C 97 % 1016,4 hPa 0,0 l/m 0 min 0 min 0 W/m 6,4 km/h (2 Bft) 97,87 %
17.08.2021 23:04 14,5 C 13,9 C 13,4 C 97 % 1016,3 hPa 0,0 l/m 0 min 0 min 0 W/m 6,4 km/h (2 Bft) 97,87 %
17.08.2021 23:06 14,5 C 13,9 C 13,4 C 97 % 1016,3 hPa 0,0 l/m 0 min 0 min 0 W/m 3,2 km/h (1 Bft) 97,83 %
17.08.2021 23:08 14,5 C 13,9 C 13,4 C 97 % 1016,3 hPa 0,0 l/m 0 min 0 min 0 W/m 6,4 km/h (2 Bft) 97,87 %
17.08.2021 23:10 14,5 C 13,9 C 13,4 C 97 % 1016,3 hPa 0,0 l/m 0 min 0 min 0 W/m 3,2 km/h (1 Bft) 97,87 %
17.08.2021 23:12 14,5 C 13,9 C 13,4 C 97 % 1016,4 hPa 0,0 l/m 0 min 0 min 0 W/m 6,4 km/h (2 Bft) 97,87 %
17.08.2021 23:14 14,5 C 13,9 C 13,4 C 97 % 1016,4 hPa 0,0 l/m 0 min 0 min 0 W/m 3,2 km/h (1 Bft) 97,87 %
17.08.2021 23:16 14,5 C 13,9 C 13,4 C 97 % 1016,3 hPa 0,0 l/m 0 min 0 min 0 W/m 12,9 km/h (3 Bft) 97,83 %
17.08.2021 23:18 14,5 C 13,9 C 13,4 C 97 % 1016,3 hPa 0,0 l/m 0 min 0 min 0 W/m 6,4 km/h (2 Bft) 95,74 %
17.08.2021 23:20 14,5 C 13,9 C 13,4 C 97 % 1016,4 hPa 0,0 l/m 0 min 0 min 0 W/m 9,7 km/h (2 Bft) 97,87 %
17.08.2021 23:22 14,5 C 13,9 C 13,4 C 97 % 1016,3 hPa 0,0 l/m 0 min 0 min 0 W/m 12,9 km/h (3 Bft) 97,87 %
17.08.2021 23:24 14,5 C 13,9 C 13,4 C 97 % 1016,3 hPa 0,0 l/m 0 min 0 min 0 W/m 6,4 km/h (2 Bft) 97,87 %
17.08.2021 23:26 14,5 C 13,9 C 13,4 C 97 % 1016,3 hPa 0,0 l/m 0 min 0 min 0 W/m 16,1 km/h (3 Bft) 97,87 %
17.08.2021 23:28 14,5 C 13,9 C 13,4 C 97 % 1016,3 hPa 0,0 l/m 0 min 0 min 0 W/m 6,4 km/h (2 Bft) 97,83 %
17.08.2021 23:30 14,5 C 13,9 C 13,4 C 97 % 1016,3 hPa 0,0 l/m 0 min 0 min 0 W/m 12,9 km/h (3 Bft) 97,87 %
17.08.2021 23:32 14,5 C 13,9 C 13,4 C 97 % 1016,3 hPa 0,0 l/m 0 min 0 min 0 W/m 6,4 km/h (2 Bft) 97,87 %
17.08.2021 23:34 14,5 C 13,9 C 13,4 C 97 % 1016,3 hPa 0,0 l/m 0 min 0 min 0 W/m 6,4 km/h (2 Bft) 97,87 %
17.08.2021 23:36 14,5 C 13,9 C 13,4 C 97 % 1016,3 hPa 0,0 l/m 0 min 0 min 0 W/m 3,2 km/h (1 Bft) 95,74 %
17.08.2021 23:38 14,5 C 13,9 C 13,4 C 97 % 1016,3 hPa 0,0 l/m 0 min 0 min 0 W/m 6,4 km/h (2 Bft) 97,87 %
17.08.2021 23:40 14,5 C 13,9 C 13,4 C 97 % 1016,3 hPa 0,0 l/m 0 min 0 min 0 W/m 6,4 km/h (2 Bft) 97,87 %
17.08.2021 23:42 14,5 C 13,9 C 13,4 C 97 % 1016,3 hPa 0,0 l/m 0 min 0 min 0 W/m 12,9 km/h (3 Bft) 97,83 %
17.08.2021 23:44 14,5 C 13,9 C 13,4 C 97 % 1016,3 hPa 0,0 l/m 0 min 0 min 0 W/m 6,4 km/h (2 Bft) 100,00 %
17.08.2021 23:46 14,5 C 13,9 C 13,4 C 97 % 1016,3 hPa 0,0 l/m 0 min 0 min 0 W/m 12,9 km/h (3 Bft) 100,00 %
17.08.2021 23:48 14,5 C 13,9 C 13,4 C 97 % 1016,3 hPa 0,0 l/m 0 min 0 min 0 W/m 6,4 km/h (2 Bft) 97,87 %
17.08.2021 23:50 14,6 C 13,9 C 13,4 C 97 % 1016,3 hPa 0,0 l/m 0 min 0 min 0 W/m 6,4 km/h (2 Bft) 100,00 %
17.08.2021 23:52 14,6 C 13,9 C 13,4 C 97 % 1016,3 hPa 0,0 l/m 0 min 0 min 0 W/m 3,2 km/h (1 Bft) 100,00 %
17.08.2021 23:54 14,6 C 13,9 C 13,4 C 97 % 1016,3 hPa 0,0 l/m 0 min 0 min 0 W/m 12,9 km/h (3 Bft) 97,87 %
17.08.2021 23:56 14,6 C 13,9 C 13,4 C 97 % 1016,3 hPa 0,0 l/m 0 min 0 min 0 W/m 6,4 km/h (2 Bft) 100,00 %
17.08.2021 23:58 14,6 C 13,9 C 13,4 C 97 % 1016,4 hPa 0,0 l/m 0 min 0 min 0 W/m 12,9 km/h (3 Bft) 100,00 %
_ Min-Zeit 05:24 04:56 05:16 11:56 20:28 - - - - 04:58 08:52
Minimum _ 11,3 C 10,6 C 10,0 C 81 % 1016,3 hPa - - - - 0,0 km/h (0 Bft) 52,17 %
_ Max-Zeit 11:10 11:04 11:04 21:22 10:12 05:22 07:58 13:46 10:46 19:14 00:00
Maximum _ 16,8 C 17,8 C 16,7 C 97 % 1018,9 hPa 0,2 l/m 2 min 2 min 421 W/m 41,8 km/h
SO (6 Bft)
100,00 %
Durchschnitt _ 13,9 C 13,4 C 12,6 C 92 % 1017,9 hPa #2,0 l/m #57 min. #3:42 h 129 W/m 11,3 km/h (2 Bft) 97,33 %
© 2021 W. Hausmann